GFSFLT2_850_spd_000.txt.gz
Wind_Speed
3 2 1 1 4 5 5 7 9 10 10 11 12 11 12 13 13 14 15 13 13 13 12 12 10 9 9 12 13 13 11 9
1 3 5 6 6 5 5 5 7 9 10 10 12 13 13 11 11 13 13 13 16 17 18 16 15 17 16 18 18 16 12 10
5 7 8 8 8 6 5 4 4 6 7 10 12 15 16 13 14 12 10 13 16 18 19 17 17 17 15 14 14 13 11 9
7 9 11 9 8 6 4 2 1 3 4 6 9 13 19 22 21 13 10 12 16 17 19 17 16 14 15 16 19 19 18 16
5 3 2 5 7 6 3 6 7 6 7 9 10 10 14 22 20 32 50 26 24 9 17 12 16 16 19 21 24 28 26 32
4 4 3 0 1 1 2 3 2 5 9 11 9 10 10 13 15 19 19 29 42 31 27 18 12 17 17 18 21 19 20 33
3 2 0 2 2 2 1 3 5 7 8 9 10 9 9 9 8 6 10 11 18 19 20 18 17 23 22 21 21 21 21 22
4 3 4 4 3 3 1 2 4 5 7 7 8 8 7 7 9 9 9 9 10 15 21 13 23 20 21 19 23 22 26 27
5 4 4 3 2 1 0 1 3 5 7 8 8 8 9 7 7 9 10 12 11 16 20 18 21 23 25 23 21 22 20 25
7 7 6 5 5 4 3 1 2 5 6 8 9 9 10 9 8 9 11 12 13 12 15 18 21 18 22 27 24 20 22 20
11 10 8 8 7 7 6 4 2 3 5 6 9 9 9 10 11 12 13 13 14 12 13 16 18 21 22 24 30 27 24 26
12 11 10 10 8 6 4 3 2 3 4 4 8 6 10 11 10 13 11 10 12 14 13 13 15 17 20 24 23 25 27 25
15 13 12 9 6 5 4 3 3 1 0 9 6 3 5 7 8 8 10 9 10 11 12 13 12 15 17 18 22 26 29 29
14 13 13 12 9 8 9 8 6 5 4 4 3 6 6 7 9 10 11 12 12 12 13 13 13 13 13 16 13 16 18 25
18 15 15 15 16 12 9 9 9 7 7 6 9 9 9 10 11 12 12 13 13 15 14 15 17 14 13 10 10 10 19 14
21 19 18 18 21 15 15 12 12 12 12 11 13 13 14 14 14 15 15 16 17 18 18 19 19 20 18 16 16 17 15 18
24 22 21 20 20 20 15 14 14 13 13 15 13 16 19 20 16 15 18 19 21 21 22 22 23 25 24 23 23 22 21 23
26 26 23 22 22 23 22 20 17 16 13 12 12 11 13 14 14 16 18 19 22 24 25 27 28 29 29 29 28 25 25 24
27 27 24 22 26 27 25 23 17 14 11 11 13 11 12 15 17 20 22 23 24 26 27 29 31 33 33 33 30 29 27 27
24 24 26 24 28 26 23 20 13 10 15 16 17 16 20 23 27 30 30 30 30 30 31 32 33 35 37 37 36 34 30 28

GFSFLT2_850_spd_003.txt.gz
Wind_Speed
0 0 7 7 8 7 7 7 6 4 4 4 5 5 6 11 12 10 6 6 4 6 8 10 10 12 11 11 14 15 14 11
2 2 4 4 6 10 9 9 8 6 5 6 6 7 9 11 17 15 12 11 10 7 7 13 16 16 15 10 11 14 13 12
5 4 6 6 5 7 7 8 6 7 6 4 4 3 9 9 14 17 18 15 11 9 7 8 15 17 18 21 16 14 13 16
6 11 11 7 5 4 2 3 2 2 2 3 1 5 6 5 10 13 17 21 14 10 7 3 7 12 17 17 14 12 14 15
9 10 7 2 6 2 6 9 0 1 0 2 1 3 6 7 9 9 12 14 18 30 34 30 20 16 17 10 14 18 17 19
6 4 1 2 1 1 2 3 3 3 3 4 3 4 4 4 5 7 7 11 14 16 25 26 22 17 21 20 21 25 25 24
3 3 2 2 2 3 4 4 4 3 2 1 1 3 4 4 6 8 7 5 5 9 10 15 19 16 14 23 22 27 25 25
5 5 6 5 6 5 3 3 1 1 0 0 0 1 2 2 3 5 7 8 9 11 15 17 16 17 22 22 23 26 23 25
7 8 9 9 9 6 6 5 3 2 1 0 1 1 3 2 3 4 7 10 9 12 17 21 21 21 23 21 21 23 25 25
11 10 10 9 10 6 6 6 6 5 4 3 2 3 5 6 5 5 9 9 12 11 11 13 17 22 25 25 25 24 24 25
10 10 9 9 8 7 8 8 6 6 5 4 1 2 4 4 5 7 9 8 9 11 11 12 13 14 23 29 28 30 28 27
13 12 12 11 10 11 9 9 8 6 6 6 2 3 2 1 4 6 7 6 6 8 10 10 12 13 17 22 24 26 28 29
15 15 15 13 12 11 10 11 10 10 9 7 6 5 4 3 4 7 8 8 10 10 10 11 11 12 16 16 19 23 27 29
18 17 17 16 14 14 14 14 14 12 11 12 9 9 7 7 8 8 9 11 12 11 12 13 13 13 15 18 16 15 17 21
20 20 19 18 17 16 16 14 15 14 14 14 15 12 11 11 11 11 12 12 13 15 15 16 17 17 16 17 17 14 25 16
20 21 21 21 20 20 19 19 19 17 16 15 14 13 13 13 13 14 15 15 17 18 18 20 21 23 21 19 21 23 25 25
20 22 23 24 23 25 24 25 22 18 16 16 15 14 13 13 13 14 15 16 19 22 25 26 26 27 26 25 25 26 27 29
18 21 24 25 26 27 28 28 24 19 17 15 15 14 14 13 14 14 15 16 20 23 26 28 29 30 30 31 30 30 30 30
18 21 26 28 29 30 28 26 23 20 17 14 14 17 13 13 14 18 20 21 23 24 28 31 31 33 32 33 33 35 34 33
22 25 28 28 29 30 27 24 21 16 14 16 22 14 13 14 18 18 21 22 23 25 28 31 31 33 34 35 36 39 38 37

GFSFLT2_850_spd_006.txt.gz
Wind_Speed
5 10 14 11 11 11 8 7 6 6 5 3 1 2 6 9 9 10 11 14 10 8 11 11 11 13 13 11 14 16 16 15
4 4 6 10 11 12 10 8 6 6 5 2 0 2 2 5 9 10 11 12 12 11 12 14 12 10 11 12 12 10 14 15
4 5 4 5 3 9 8 7 7 7 6 4 3 3 1 4 8 6 8 9 12 13 14 14 13 11 8 11 14 15 14 16
4 8 8 8 1 5 3 5 2 1 3 5 5 7 6 4 7 7 8 11 16 16 13 15 17 14 10 9 9 8 9 16
9 9 9 4 3 3 7 8 3 6 3 3 7 5 3 4 4 5 10 10 11 12 17 21 24 14 8 13 9 10 15 18
12 8 4 3 7 6 4 6 4 6 6 3 3 3 3 3 4 5 8 8 9 10 11 12 14 21 33 27 27 17 15 21
11 6 4 3 8 11 12 10 10 9 8 6 7 5 4 4 5 6 6 8 9 11 12 11 10 12 12 20 33 31 32 23
11 8 7 6 6 10 10 12 9 9 10 8 7 8 5 7 5 7 9 9 10 13 14 14 14 15 17 17 20 21 23 28
12 8 11 9 12 12 6 10 8 9 10 9 8 8 7 6 7 5 10 9 9 11 14 17 19 20 20 22 22 23 22 25
12 10 13 12 9 12 9 12 8 10 11 11 9 8 7 6 5 7 7 4 9 11 10 12 15 16 19 24 29 27 27 26
13 14 13 13 14 13 13 14 12 10 12 12 11 9 7 5 7 9 7 6 9 12 11 12 14 15 17 20 24 28 28 30
15 16 15 16 14 14 16 16 10 17 15 13 14 10 9 7 5 10 10 6 9 14 15 13 12 14 19 24 23 22 23 26
17 16 17 19 16 17 15 16 15 16 13 16 14 12 12 9 5 7 5 6 9 12 13 15 16 14 19 23 23 20 16 16
19 18 18 20 18 17 16 17 17 21 18 21 23 17 17 12 9 9 8 11 12 11 13 16 17 17 20 23 25 29 17 11
19 20 20 21 24 20 21 22 26 20 21 21 19 23 20 17 15 14 13 12 11 13 16 19 20 19 20 22 27 22 29 31
22 20 22 23 25 27 25 25 24 24 21 25 28 25 19 16 16 16 15 14 14 15 15 17 21 26 24 23 26 29 30 34
19 22 21 24 26 28 31 33 31 28 25 22 21 19 19 15 15 17 22 19 19 22 23 26 27 26 26 26 27 29 30 32
19 23 24 25 27 30 34 34 35 28 27 26 24 22 20 17 17 20 21 21 23 22 25 25 28 32 35 36 33 31 31 31
20 23 27 28 29 32 34 38 34 35 32 29 26 23 21 22 19 20 24 25 25 27 28 30 31 34 36 37 37 37 35 35
20 26 29 30 31 33 34 35 36 30 28 23 23 23 21 22 21 21 22 27 29 28 30 30 30 31 32 32 33 33 32 33

GFSFLT2_850_spd_009.txt.gz
Wind_Speed
10 11 10 11 11 12 10 6 4 4 2 1 1 2 4 4 4 4 6 8 8 9 10 8 8 7 8 11 14 16 18 17
5 5 7 11 11 12 12 8 7 6 4 1 2 2 4 5 5 5 3 5 5 6 8 10 11 13 14 12 11 12 15 17
9 4 6 9 2 3 7 3 5 4 5 3 2 2 2 5 2 5 6 5 6 6 9 12 14 17 18 17 16 16 14 13
7 4 6 4 1 2 3 3 5 6 2 2 3 2 6 5 4 4 6 7 9 11 13 15 13 18 19 20 22 19 18 13
9 10 8 5 5 5 5 5 8 5 5 5 4 6 8 6 6 4 5 9 10 10 10 13 21 22 19 17 20 16 17 19
12 10 2 4 7 8 10 10 9 8 6 8 8 8 8 9 8 8 7 8 9 10 10 7 8 10 15 28 25 23 16 21
14 10 4 5 9 10 10 12 10 11 11 11 11 10 8 9 9 9 9 10 11 11 12 13 13 13 12 13 14 20 26 23
16 14 9 8 10 11 13 16 15 15 15 12 13 13 11 10 11 11 12 9 10 11 12 12 13 14 14 16 16 17 20 19
17 16 13 11 13 13 13 15 16 17 16 14 14 13 12 14 13 13 13 12 11 9 10 11 12 13 14 17 20 22 23 23
15 16 14 14 14 14 13 15 16 16 17 15 13 14 13 13 13 13 12 12 11 10 10 10 12 13 15 15 17 20 22 26
15 16 15 17 16 14 13 14 17 16 17 19 17 16 16 14 13 12 9 8 9 11 12 15 15 15 15 16 18 21 22 23
15 16 17 19 19 17 17 19 20 17 19 20 21 19 17 15 13 11 11 7 6 10 15 17 18 18 19 19 19 22 21 18
16 18 20 21 20 21 22 23 25 21 23 24 21 21 19 19 14 10 9 8 10 12 14 15 17 21 22 23 26 27 18 21
17 18 20 20 23 25 24 23 21 23 22 24 23 25 24 22 22 17 17 16 16 15 13 13 15 16 19 23 22 35 30 18
17 17 18 22 24 25 27 22 23 26 25 25 28 30 29 27 24 18 17 18 18 16 13 15 17 15 15 21 25 23 34 34
13 16 19 20 23 27 29 31 31 31 31 31 28 28 29 28 24 22 19 17 12 12 15 18 17 22 25 26 29 31 30 35
11 15 19 25 24 27 30 31 33 36 33 26 27 25 23 29 24 25 22 18 20 24 26 24 26 28 31 30 29 30 34 36
16 17 21 24 26 29 31 34 37 36 37 35 32 28 21 24 26 25 23 23 21 19 17 21 26 29 33 34 35 37 36 34
9 13 18 23 27 31 34 37 38 39 41 39 37 31 24 22 20 20 18 20 21 24 24 29 34 35 33 32 32 33 34 34
13 16 21 28 33 35 27 27 35 40 41 36 33 28 25 23 27 25 25 25 28 37 30 28 32 33 34 32 32 33 33 35

GFSFLT2_850_spd_012.txt.gz
Wind_Speed
4 3 4 5 7 6 5 1 2 4 4 5 3 3 3 4 4 4 5 6 5 4 5 8 7 9 12 14 16 21 20 18
2 2 3 6 6 8 9 6 2 3 3 4 4 5 5 5 4 6 5 6 7 5 5 6 6 8 12 14 17 20 20 20
7 6 6 7 4 5 8 5 1 1 1 3 4 5 4 5 5 5 5 3 5 6 7 8 10 12 12 11 14 17 20 20
6 6 9 10 8 6 6 7 7 6 4 3 3 4 4 3 4 5 5 6 6 8 9 11 12 13 13 14 16 16 19 21
5 7 7 7 8 7 6 8 9 8 6 6 6 6 6 8 9 8 9 9 10 10 11 11 11 14 18 18 19 20 17 19
9 10 6 6 6 8 9 9 9 9 8 9 9 9 10 11 11 12 11 11 12 11 12 12 11 10 10 11 13 23 18 16
14 12 8 8 8 9 11 12 13 13 12 12 13 13 12 12 12 13 13 13 13 13 14 15 15 16 15 14 14 13 15 26
15 12 11 10 9 10 12 14 17 18 16 16 16 16 16 14 14 15 16 15 15 14 14 15 15 14 15 16 17 18 16 17
13 11 12 13 13 11 13 16 19 20 20 18 17 17 18 18 18 17 17 16 15 15 14 14 14 15 15 13 16 18 20 22
11 12 15 18 16 14 16 17 17 19 19 19 18 17 17 19 20 19 17 16 16 15 12 11 11 13 15 17 18 19 20 20
12 13 16 19 19 19 21 20 21 22 23 22 21 19 18 20 20 18 15 14 14 14 13 12 13 13 15 16 19 21 23 22
11 14 17 18 19 22 22 22 23 23 25 26 26 24 20 21 21 20 17 16 16 15 13 13 14 15 17 19 19 18 21 21
12 14 15 17 19 21 22 24 23 25 26 28 26 25 26 25 22 21 21 20 17 15 15 15 14 14 19 21 22 20 19 26
9 12 14 15 18 20 22 24 25 26 25 25 27 29 29 28 27 28 24 22 20 19 18 18 15 13 18 20 17 30 24 27
8 9 12 14 17 19 22 26 30 32 32 31 31 30 34 33 32 31 29 27 25 24 23 22 18 17 17 15 14 16 38 33
8 9 13 15 17 21 24 27 31 33 35 34 32 35 32 32 31 31 29 27 25 24 23 21 19 20 17 18 21 25 30 36
9 11 13 14 18 22 28 31 34 34 35 36 36 36 35 31 30 33 31 29 26 22 18 17 20 15 12 16 22 29 33 35
11 11 9 12 18 22 28 31 35 38 39 40 39 41 40 38 32 36 34 31 31 30 28 25 21 23 24 25 29 35 34 33
7 9 15 19 26 28 33 34 36 35 35 37 39 43 40 38 31 32 33 31 32 29 25 23 25 27 29 24 31 35 34 34
12 16 22 24 26 33 38 39 33 32 34 34 35 35 29 30 30 29 26 20 24 27 26 29 32 23 23 30 34 35 35 35

GFSFLT2_850_spd_015.txt.gz
Wind_Speed
3 2 1 3 5 6 6 6 6 8 6 7 7 5 4 3 3 5 6 6 6 6 6 6 6 8 11 11 11 14 13 13
1 3 5 7 7 7 7 8 5 6 6 6 6 6 6 5 4 4 5 6 6 5 6 7 7 8 9 11 11 11 13 15
3 5 6 9 9 8 6 4 4 6 5 6 6 6 5 4 5 5 6 5 7 7 7 8 9 10 12 11 13 15 16 16
4 5 7 10 9 8 6 5 6 8 7 7 7 7 7 6 6 7 7 7 8 9 10 10 11 11 13 14 14 17 18 17
7 5 7 9 7 7 7 8 8 9 8 9 10 10 10 10 10 11 10 11 11 12 13 12 12 12 13 15 18 19 20 20
7 6 10 11 9 8 9 11 11 11 10 11 12 13 13 13 13 13 13 13 13 14 15 15 15 14 15 16 15 16 16 20
10 10 12 10 11 10 10 11 13 14 15 15 15 15 15 15 16 15 14 15 15 15 15 16 17 17 17 16 16 17 17 18
10 9 10 10 11 12 12 13 15 17 18 18 18 19 18 19 19 18 17 17 17 17 16 16 16 16 16 15 14 15 16 16
11 11 11 9 11 11 12 14 16 18 19 20 20 19 20 20 20 21 21 20 19 18 17 16 16 14 13 13 13 14 15 17
12 11 11 11 13 13 12 14 17 18 18 19 19 18 18 20 21 22 22 22 21 20 18 16 15 14 14 15 15 16 16 16
11 11 10 13 13 15 16 18 18 17 19 20 20 21 21 21 21 21 22 22 22 21 19 19 17 16 16 16 16 16 17 18
10 10 11 11 11 13 15 18 19 19 19 20 22 24 26 24 22 22 22 23 24 23 21 21 20 18 19 19 19 20 21 18
8 8 8 10 10 12 15 19 22 24 22 22 22 23 26 27 27 27 26 26 25 25 23 24 23 21 20 22 22 22 21 20
7 9 11 11 12 12 16 20 23 27 28 28 29 28 28 29 32 32 33 32 31 30 30 28 27 23 21 20 16 20 25 25
8 12 13 14 15 16 17 20 24 28 30 32 32 34 35 34 35 36 38 38 37 35 33 31 29 27 26 19 9 10 21 29
12 14 15 15 17 18 21 25 31 31 33 35 36 36 39 40 40 39 41 41 40 36 32 32 32 30 27 22 17 14 9 18
12 14 14 15 14 16 23 30 31 34 35 38 38 40 41 42 41 41 42 41 36 34 35 34 33 29 23 18 18 17 19 21
13 12 10 11 19 25 31 32 36 41 43 43 37 36 34 34 36 40 42 41 36 35 32 28 25 25 22 24 22 17 20 25
7 10 14 20 25 27 35 37 42 43 38 32 33 35 36 38 34 39 40 38 39 37 30 25 21 24 24 22 24 27 20 26
13 18 23 27 33 37 37 34 33 32 32 32 32 31 32 30 23 28 31 30 25 20 20 22 28 25 29 21 20 22 25 25

GFSFLT2_850_spd_018.txt.gz
Wind_Speed
4 3 3 3 5 6 8 8 6 6 6 6 5 5 4 4 5 6 7 8 9 8 8 7 6 8 7 8 8 7 8 10
4 2 2 6 9 9 8 7 6 6 6 6 6 6 7 7 7 7 7 7 7 7 7 7 7 8 9 10 10 9 8 10
2 3 3 8 10 10 7 6 5 5 6 6 7 8 8 7 8 8 9 10 10 9 9 9 9 9 10 12 14 13 13 13
1 3 5 7 7 6 5 5 5 5 6 7 8 9 8 9 8 8 10 11 12 12 12 12 12 12 12 12 13 14 14 14
4 5 6 8 7 6 5 6 6 6 7 8 10 11 12 12 12 12 12 12 13 14 15 15 13 12 11 11 12 13 15 15
9 6 7 9 8 8 8 8 8 8 8 10 11 12 13 14 14 15 15 15 14 15 16 16 16 16 17 16 16 16 16 15
10 5 7 8 9 11 11 11 10 11 12 14 15 15 16 17 17 18 18 17 17 17 18 18 18 17 17 17 18 15 15 16
14 8 5 7 9 12 11 11 12 14 16 17 16 17 18 19 19 20 20 20 20 20 20 19 19 18 18 18 17 17 15 13
15 8 8 9 10 12 10 10 12 14 16 16 17 18 18 19 19 20 20 21 22 22 21 20 19 18 17 16 16 15 16 16
15 10 9 9 12 12 12 13 14 14 14 15 16 17 18 18 19 20 19 20 22 22 21 21 19 18 16 16 16 15 15 15
14 10 8 10 11 11 12 13 15 15 16 18 19 19 19 20 21 20 20 20 21 21 22 22 22 21 20 19 17 16 15 15
13 10 7 9 8 8 9 11 12 15 17 21 22 23 24 25 25 24 23 24 23 24 24 23 22 22 23 23 23 21 19 17
12 8 7 10 10 10 11 13 15 17 20 22 22 25 29 30 31 30 30 30 28 27 27 27 27 26 25 28 29 28 26 23
9 9 11 13 13 14 17 20 22 24 26 28 28 28 29 33 36 38 38 37 36 34 34 35 32 31 31 30 29 29 31 26
7 9 12 16 17 19 21 24 26 27 29 30 29 33 35 36 38 41 43 43 43 42 41 41 39 36 35 29 13 18 23 22
11 14 16 16 16 16 18 21 26 31 33 33 34 34 36 37 38 38 40 46 49 48 47 44 41 39 37 35 35 35 23 24
13 11 8 8 9 13 21 28 32 35 39 41 42 37 30 29 30 31 32 37 45 52 49 43 42 40 37 34 31 27 22 19
7 8 11 13 17 23 28 34 38 41 41 38 36 35 36 36 35 35 35 34 38 41 41 39 37 35 32 29 25 18 12 13
11 15 19 24 29 32 34 34 33 34 35 36 37 35 35 35 33 31 30 29 29 26 27 26 23 23 23 20 21 20 20 20
22 26 29 31 31 30 28 28 30 34 37 35 32 31 34 31 29 24 21 20 19 16 15 16 16 17 16 19 18 18 15 15

GFSFLT2_850_spd_021.txt.gz
Wind_Speed
8 7 5 4 4 5 5 5 2 2 2 4 5 5 6 6 6 6 7 8 9 9 9 9 8 8 7 7 7 6 7 10
7 5 2 4 6 7 6 4 3 2 2 3 4 6 7 8 8 7 7 8 9 9 9 9 9 9 10 10 10 9 8 9
6 4 2 4 5 6 4 4 3 3 3 3 4 5 7 8 8 9 8 10 10 10 10 10 9 11 12 12 11 11 12 12
4 2 2 5 6 5 4 3 3 3 4 4 5 7 8 9 10 10 11 12 12 12 12 12 12 13 13 13 13 13 13 14
4 1 3 6 5 5 5 4 5 5 6 6 8 9 10 11 12 13 14 14 15 15 14 14 13 12 12 12 13 13 12 13
6 5 2 4 6 7 6 7 7 8 8 9 10 11 12 12 14 15 15 16 17 16 16 16 17 17 15 15 14 14 14 13
9 8 3 4 6 9 8 8 9 10 11 12 12 13 14 14 16 17 18 19 19 18 18 18 18 18 17 15 14 12 11 11
10 9 6 5 7 9 8 7 7 9 11 13 13 14 15 16 17 17 18 19 19 19 20 20 20 19 18 16 15 13 11 10
14 13 10 6 7 8 7 7 7 9 10 11 12 14 16 17 18 18 18 19 19 20 21 21 20 19 19 18 16 15 15 14
16 15 11 7 7 8 8 8 10 11 12 14 15 15 16 18 19 19 19 21 22 21 22 21 20 20 20 19 18 17 17 16
18 16 11 8 8 7 7 7 8 9 10 13 14 16 18 21 22 23 23 23 23 23 23 23 22 22 22 22 22 22 21 20
16 15 12 8 7 9 8 7 7 9 13 16 17 18 20 22 25 26 27 28 28 28 28 26 25 25 25 26 26 26 25 26
15 13 9 10 11 11 12 13 16 17 17 21 23 24 25 25 28 30 33 35 35 34 34 33 32 30 30 29 31 30 29 28
10 11 13 14 15 16 18 20 21 23 24 25 28 30 30 30 32 33 34 37 39 41 41 41 39 37 36 26 21 23 26 28
10 12 13 14 15 17 18 19 19 21 24 30 31 32 33 35 37 38 38 40 42 42 42 45 47 44 42 34 18 23 20 22
8 9 11 11 10 10 13 18 23 27 30 33 36 36 34 32 31 32 33 34 36 36 39 42 44 45 38 46 44 39 25 25
5 5 6 9 13 19 25 29 33 36 36 36 36 37 36 36 35 33 33 33 35 37 38 39 39 41 40 36 37 39 35 28
9 11 15 20 24 29 34 38 40 38 38 39 40 40 39 35 34 34 34 32 31 30 32 33 32 28 29 29 29 27 24 15
17 20 24 30 33 36 35 33 31 32 36 39 39 37 35 33 31 29 27 25 23 20 18 16 14 17 22 23 24 20 18 16
25 28 29 32 31 25 24 25 28 33 37 39 38 35 32 30 27 26 22 18 14 12 11 11 13 13 13 11 12 11 11 13

GFSFLT2_850_spd_024.txt.gz
Wind_Speed
10 8 6 6 4 4 4 4 3 2 1 1 2 3 4 5 5 6 6 6 6 6 7 7 7 8 8 8 7 7 4 5
7 5 3 3 4 5 4 3 2 2 2 2 3 5 6 7 6 5 6 7 8 8 8 8 9 9 9 10 10 9 6 6
8 4 1 3 4 5 3 3 3 3 4 4 4 3 5 6 8 8 8 9 10 10 10 11 11 12 13 12 10 7 7 7
6 3 0 3 4 5 4 3 2 3 3 5 4 6 7 8 11 11 12 13 13 13 13 12 12 10 11 12 7 10 8 8
7 4 1 3 3 3 3 3 3 4 6 6 7 9 8 8 8 10 10 14 11 14 15 11 12 12 11 13 13 13 9 8
8 6 1 1 2 3 3 3 5 5 6 9 8 8 9 9 9 11 12 10 14 14 13 16 16 16 15 15 14 12 9 9
9 8 6 2 2 5 4 3 4 5 7 8 9 8 9 9 10 11 11 12 12 12 12 12 13 15 15 15 13 12 13 9
10 9 8 5 3 5 5 4 4 5 6 7 9 9 9 10 11 11 11 12 12 13 13 15 14 16 16 17 15 11 10 12
11 11 11 8 6 7 5 4 3 4 5 8 9 11 12 13 12 13 12 13 17 16 16 17 17 16 17 18 17 16 14 14
14 15 13 11 8 8 7 5 5 4 4 7 8 10 11 14 14 14 14 17 16 16 16 16 16 16 15 15 15 14 16 16
16 17 15 12 11 9 8 6 4 3 4 9 11 12 13 15 18 19 18 18 18 18 19 19 19 19 18 18 17 16 16 15
15 11 13 15 13 11 9 9 9 11 12 14 16 18 19 21 24 25 23 22 23 22 23 22 23 22 23 23 21 20 19 19
5 5 11 14 11 9 7 8 10 11 12 16 18 18 22 28 30 30 29 25 26 27 26 27 26 25 24 26 26 25 25 24
4 7 10 11 11 13 15 15 14 16 14 14 16 25 32 34 34 32 27 26 26 27 28 28 30 28 30 28 31 30 29 26
1 3 6 9 9 6 7 8 10 11 19 23 31 35 33 30 30 30 31 30 25 26 26 27 31 29 30 30 25 32 29 27
6 6 7 9 9 11 16 15 17 24 23 24 36 36 34 30 28 27 28 26 26 26 25 26 26 32 29 34 36 38 37 30
9 9 10 13 15 19 28 27 26 22 35 34 24 22 24 24 26 33 33 29 26 27 25 24 25 28 29 29 31 31 32 31
11 11 11 18 22 24 28 23 20 18 20 22 23 26 26 25 25 31 30 29 25 23 18 13 13 16 19 18 18 17 18 24
13 14 15 17 19 20 16 16 17 19 21 22 28 30 29 28 28 24 17 17 17 16 17 15 16 15 16 18 20 20 22 22
14 15 16 16 16 17 21 24 21 21 22 27 29 29 27 23 18 12 10 8 8 9 15 17 16 12 11 10 8 7 6 6

GFSFLT2_850_spd_027.txt.gz
Wind_Speed
8 6 6 5 4 5 6 5 3 4 3 3 3 4 5 5 6 6 6 7 7 8 8 9 9 9 9 8 8 7 4 6
8 6 4 3 5 5 4 5 5 5 4 4 5 6 8 7 6 7 9 9 8 9 9 10 10 9 10 9 9 7 3 8
7 5 4 2 2 7 7 5 7 7 8 7 8 6 7 11 11 9 10 11 12 12 11 12 12 13 12 11 10 3 9 7
6 5 2 2 1 1 0 1 1 1 1 3 4 4 6 7 13 15 14 13 13 13 13 13 11 7 14 16 9 10 9 9
7 5 3 3 1 1 1 2 2 3 3 2 4 6 6 9 10 14 13 17 11 14 15 11 10 10 9 11 11 11 10 11
8 6 3 2 2 2 2 2 3 3 4 6 5 6 7 7 8 10 11 10 12 12 12 13 14 12 14 15 14 13 11 12
8 7 5 2 2 2 1 2 3 5 4 5 4 4 6 7 9 9 10 11 12 13 13 14 15 15 15 14 14 14 14 13
9 8 7 5 2 3 2 3 2 3 4 4 5 5 6 7 9 10 10 12 13 14 15 15 16 16 17 17 16 15 14 15
10 9 8 7 4 4 3 3 4 4 4 5 4 5 6 8 9 11 11 13 15 16 17 17 18 17 18 18 18 17 15 17
9 9 9 8 6 5 4 5 4 5 5 4 6 8 10 12 11 13 14 15 16 17 19 20 21 21 21 20 19 20 18 18
10 10 10 8 7 6 7 6 5 5 6 7 9 10 11 13 14 16 17 17 19 20 22 23 24 25 24 24 23 23 22 21
7 8 8 8 7 7 6 7 7 8 9 9 11 11 11 12 14 16 18 20 23 25 27 28 29 30 31 30 30 28 27 26
1 2 6 3 5 6 7 7 8 9 10 12 11 11 12 16 16 18 22 23 24 26 28 29 31 30 33 33 35 33 34 33
6 4 3 2 2 3 6 8 7 8 6 9 12 16 27 27 22 22 21 22 24 24 25 29 31 30 32 33 36 35 34 38
8 7 6 4 4 4 5 7 8 11 14 20 19 26 23 21 21 22 22 22 23 25 25 27 30 32 30 32 30 34 31 32
7 6 5 6 6 5 8 10 15 18 19 20 18 18 19 20 21 20 22 22 24 24 23 26 26 31 30 31 34 37 38 37
6 6 7 8 10 13 12 13 15 16 16 17 18 17 18 20 20 22 24 24 23 22 23 23 22 25 27 27 31 34 26 24
8 9 10 11 12 12 13 13 15 16 17 18 17 20 21 22 23 23 23 21 20 19 19 17 21 19 16 18 22 23 24 21
10 11 13 14 14 14 14 15 16 16 18 19 22 24 25 26 24 22 19 18 19 18 16 14 20 24 23 23 22 23 24 22
13 15 16 17 16 16 16 16 17 18 19 21 23 24 25 22 20 18 16 16 14 13 16 23 25 24 21 17 14 14 12 11

GFSFLT2_850_spd_030.txt.gz
Wind_Speed
11 9 8 7 7 8 8 7 6 6 6 6 5 5 7 7 6 5 7 7 8 9 9 9 9 9 8 8 8 7 3 1
5 6 6 7 8 9 6 7 7 7 7 7 9 10 14 13 9 13 11 10 10 10 10 10 11 10 10 10 9 6 3 3
8 10 7 3 5 8 6 8 10 9 8 11 9 12 9 12 16 17 17 15 16 14 13 13 13 10 11 13 10 3 4 7
9 4 5 6 2 6 8 8 5 7 6 9 5 6 4 10 13 17 16 18 20 14 20 17 10 9 11 12 10 8 13 10
8 9 6 7 1 2 2 3 3 3 6 0 1 5 6 9 11 11 14 14 15 16 20 15 14 17 16 13 14 16 14 9
8 6 5 7 5 1 4 3 2 3 5 9 1 1 5 6 5 9 6 10 11 13 13 14 18 19 19 20 19 17 16 12
12 9 4 2 3 2 3 5 1 6 2 6 7 1 6 5 7 7 7 8 9 11 14 15 15 16 17 18 21 21 17 18
12 8 7 5 5 5 0 3 2 4 2 7 10 4 5 6 8 8 7 8 12 16 18 17 17 17 18 17 22 25 22 19
11 10 8 8 4 3 1 4 5 3 4 10 7 5 6 9 9 10 10 13 16 17 17 19 20 20 22 22 21 25 26 22
12 9 7 8 5 6 3 5 7 5 7 7 9 12 11 12 12 13 15 18 21 19 21 22 22 24 26 25 26 26 27 28
5 7 9 9 7 7 7 9 6 1 7 5 8 8 8 14 16 15 17 21 22 22 25 25 26 26 28 28 28 28 30 30
6 3 3 6 10 6 7 8 6 7 5 9 14 14 16 17 18 28 25 23 24 25 26 28 31 32 33 34 34 35 35 33
6 7 11 8 3 5 9 7 7 7 7 13 15 11 20 23 28 30 26 25 23 26 28 29 31 28 31 33 34 35 34 34
8 1 3 5 1 5 6 8 9 8 9 10 15 14 20 25 23 23 21 25 28 27 24 26 27 26 27 31 34 35 30 30
9 7 5 3 4 2 3 3 6 10 12 18 21 20 20 17 18 20 21 23 25 26 27 27 30 29 25 27 31 30 30 28
7 5 4 7 7 4 7 8 10 15 19 16 18 17 18 16 19 20 22 24 27 31 24 25 28 33 29 24 26 29 23 28
6 5 8 9 11 12 13 12 15 14 14 17 17 14 17 20 21 23 27 30 26 19 20 21 21 22 23 27 32 34 34 24
5 6 7 10 13 13 12 14 15 15 16 16 15 20 21 23 25 27 26 20 21 22 22 27 27 30 27 29 28 27 27 28
7 9 10 11 12 12 13 14 14 15 17 19 22 24 27 28 26 23 24 24 27 27 26 25 22 24 32 29 23 22 22 20
9 10 13 14 14 15 13 13 16 17 18 22 25 25 23 22 22 22 26 26 24 23 23 24 29 24 19 16 15 13 13 15

GFSFLT2_850_spd_033.txt.gz
Wind_Speed
12 12 11 10 10 9 10 10 10 10 9 8 7 8 9 10 11 12 11 11 10 10 10 10 10 9 9 9 8 6 1 3
8 8 7 8 9 10 9 10 11 11 11 11 8 8 10 12 13 15 14 14 15 11 11 13 11 9 7 8 9 4 2 4
8 5 5 7 10 11 9 8 8 10 10 11 8 9 8 12 11 12 12 14 14 12 13 17 10 7 8 7 5 2 6 7
9 4 4 6 5 7 8 8 9 10 8 8 4 7 6 8 7 7 9 10 10 10 16 15 16 16 15 14 13 11 12 10
14 4 12 4 2 1 1 3 6 7 5 3 2 2 2 6 7 8 10 8 9 13 13 14 16 19 19 18 15 17 19 18
12 4 10 11 7 4 5 4 3 2 2 6 4 4 5 8 8 8 9 8 8 10 12 15 17 18 20 20 21 23 19 17
13 4 7 10 9 8 10 10 6 7 8 10 8 5 5 4 4 5 5 4 7 10 14 17 17 16 17 20 22 23 23 21
14 10 7 7 7 3 4 9 8 5 9 9 9 8 5 5 6 7 7 7 11 15 19 19 20 21 21 20 21 22 24 24
14 15 14 12 8 5 3 4 4 7 9 10 12 9 8 11 8 8 8 11 16 19 22 22 21 23 24 24 24 25 27 30
18 17 13 10 3 6 5 7 10 9 10 12 12 12 13 12 12 14 16 19 23 25 25 25 25 25 27 27 27 27 29 31
19 15 10 9 11 12 6 9 10 7 8 10 11 15 16 18 19 17 19 22 21 22 23 23 26 27 30 32 34 34 32 31
14 8 10 6 7 6 8 7 7 8 10 10 11 13 15 19 20 21 24 27 25 26 27 26 28 31 33 34 32 31 32 32
6 6 5 8 3 4 5 8 5 4 9 13 15 13 15 19 22 22 23 23 24 25 27 29 28 26 30 32 31 30 31 31
3 6 7 3 3 4 8 11 7 3 5 5 8 12 13 15 16 16 18 20 22 24 27 29 32 27 26 30 28 33 30 26
4 3 4 3 3 5 7 6 7 10 11 14 15 15 15 17 18 19 19 22 24 26 29 32 31 28 25 22 19 21 29 31
7 8 12 13 13 14 12 13 14 15 17 20 21 23 23 22 19 20 23 26 30 30 26 22 24 25 23 21 23 27 19 28
6 6 10 13 15 17 17 14 14 14 14 16 18 19 21 23 26 32 31 29 25 22 21 22 24 28 29 30 32 32 31 30
9 5 6 8 8 8 9 12 13 14 16 18 21 24 25 28 32 30 26 24 25 25 28 25 26 23 25 24 28 27 23 16
3 4 8 12 15 16 15 15 14 15 18 21 24 26 30 33 34 31 28 28 28 22 22 25 23 25 26 28 21 17 14 14
11 13 14 11 12 13 15 17 17 16 19 20 24 29 32 32 26 27 29 23 20 21 22 21 24 22 21 15 16 14 16 16

GFSFLT2_850_spd_036.txt.gz
Wind_Speed
16 13 11 9 8 7 8 9 10 9 8 7 7 8 9 8 9 9 9 9 10 7 7 8 8 7 6 5 4 3 3 5
12 11 8 8 8 8 8 9 10 10 8 8 8 8 9 9 10 10 10 12 11 10 10 13 9 8 8 8 5 3 4 7
10 7 6 9 11 11 9 9 9 8 5 6 7 7 7 7 7 6 8 9 9 10 14 13 13 12 13 11 10 8 7 8
7 4 5 9 7 7 7 8 7 6 5 5 7 5 4 3 4 5 7 7 7 9 10 13 15 17 17 16 15 13 13 15
9 6 9 8 4 3 2 3 2 3 3 3 6 4 2 3 6 6 7 7 8 8 10 13 16 18 19 19 19 18 16 14
12 6 7 9 6 3 5 5 3 2 3 4 6 7 7 6 7 7 6 6 6 9 10 12 16 17 19 18 19 20 19 18
16 10 9 5 6 6 5 6 6 6 6 8 9 9 10 9 8 6 5 6 8 10 13 15 19 19 20 21 20 20 21 22
20 11 9 5 6 8 11 13 11 11 12 13 13 12 11 11 8 8 7 9 11 13 17 20 23 22 22 21 23 24 25 25
18 18 16 10 8 6 7 10 12 11 11 13 15 14 10 13 13 11 12 12 13 16 19 21 22 23 23 23 23 24 27 28
24 22 13 11 8 10 8 8 9 10 13 14 16 16 16 18 15 12 13 13 17 21 25 27 28 28 28 27 26 27 27 28
27 22 13 14 8 10 10 10 10 11 12 14 15 16 18 16 15 16 18 19 24 27 28 27 28 30 32 32 33 33 32 30
23 15 15 9 10 13 14 10 9 8 7 5 8 11 13 15 18 19 22 26 29 29 28 27 27 28 29 29 30 30 29 28
6 5 5 5 7 10 8 7 1 2 4 6 7 9 11 13 17 20 23 24 24 25 27 29 30 32 36 37 34 31 25 23
6 11 9 6 4 2 1 3 4 4 3 7 9 12 16 19 22 23 24 23 23 25 28 30 32 33 29 30 21 31 24 18
9 11 10 7 5 2 3 5 9 13 16 20 21 22 24 23 20 19 20 23 27 31 31 29 25 23 24 20 15 10 34 25
8 8 9 10 12 15 17 18 20 19 20 22 24 26 27 27 27 29 30 32 29 24 22 19 18 22 23 22 23 23 26 31
6 8 9 13 17 17 18 16 15 16 16 17 19 21 24 28 29 28 30 25 25 23 24 23 22 19 22 20 20 22 23 23
3 6 7 12 14 17 20 20 21 21 21 23 24 26 28 28 30 31 29 27 30 28 21 17 20 21 19 22 21 18 12 12
5 6 9 13 16 15 16 15 16 18 20 21 23 26 27 26 27 27 27 30 26 21 19 19 18 17 17 17 17 14 14 14
8 13 15 14 15 16 17 18 18 19 22 23 23 21 20 22 24 28 28 20 19 19 16 13 13 12 14 15 14 12 13 13

GFSFLT2_850_spd_039.txt.gz
Wind_Speed
16 13 10 9 7 7 7 8 8 8 8 7 8 9 8 8 8 9 9 9 8 8 8 9 8 8 7 8 9 7 5 4
14 12 9 8 8 8 7 8 8 8 9 8 8 6 7 6 7 6 7 8 8 9 10 11 10 10 10 9 8 8 7 7
12 9 9 10 10 10 9 10 9 7 7 8 6 5 4 4 5 4 6 5 6 8 8 10 10 12 13 12 11 10 9 11
11 6 8 11 10 10 10 10 8 7 6 5 6 2 1 2 4 5 7 6 6 6 7 8 10 12 13 14 13 13 11 11
13 8 11 10 9 7 6 6 5 3 2 2 4 3 5 4 4 6 8 7 6 6 7 9 10 13 15 16 14 14 14 12
16 12 10 10 9 7 7 5 4 3 2 4 7 8 10 9 8 8 9 8 8 9 10 11 13 16 17 17 17 17 16 16
16 13 11 7 6 6 5 4 5 6 6 7 8 9 11 13 12 11 11 11 11 12 13 14 16 19 19 19 19 19 18 18
19 15 13 10 5 4 4 6 8 8 9 10 11 11 13 16 14 12 13 14 15 16 17 19 21 23 25 25 25 25 24 21
20 18 15 11 6 5 4 7 7 9 10 12 12 14 15 14 13 14 14 15 18 19 20 22 24 27 29 29 28 27 27 26
25 20 19 16 11 5 5 7 11 10 11 12 14 15 15 14 15 15 17 20 21 22 25 28 30 32 33 31 31 30 29 29
28 24 20 14 6 9 11 10 11 11 11 13 16 16 16 16 18 21 20 21 22 25 29 31 33 34 33 31 29 28 27 25
29 25 17 9 17 11 8 9 9 8 8 8 11 14 16 17 17 17 22 25 26 27 29 31 32 32 33 34 33 31 28 24
21 15 9 5 3 4 3 5 6 6 6 7 9 12 13 16 19 21 24 26 27 29 32 33 34 37 40 38 36 30 20 21
8 11 10 7 5 5 2 2 5 9 12 15 17 19 21 23 25 26 25 25 27 30 32 33 33 31 30 32 19 32 17 10
13 11 8 5 4 3 4 5 11 18 21 23 24 25 25 25 25 24 26 30 31 30 28 27 28 28 25 21 16 11 31 22
7 8 7 7 8 9 10 13 18 21 23 23 22 20 21 22 25 27 27 28 27 25 27 27 25 24 22 20 19 22 23 22
7 8 11 11 12 13 14 14 16 17 17 18 19 21 23 24 23 25 26 26 26 28 26 19 16 16 18 19 19 19 19 18
5 6 8 10 12 14 16 17 18 18 18 19 21 24 25 25 25 24 26 28 28 22 19 18 17 17 16 16 17 14 13 11
4 7 9 11 13 15 17 17 17 17 17 20 23 22 22 22 23 25 30 28 23 21 18 16 14 13 12 14 14 13 14 15
7 11 12 14 16 17 17 19 18 19 23 23 23 22 21 23 25 27 26 22 16 17 17 15 14 13 14 15 17 16 17 18

GFSFLT2_850_spd_042.txt.gz
Wind_Speed
16 13 10 8 7 6 7 8 9 9 9 9 9 8 9 10 11 10 11 11 10 10 11 11 11 10 10 11 10 10 9 7
13 11 9 8 8 8 8 8 9 9 9 9 8 9 8 8 7 8 8 7 7 9 9 10 10 11 11 11 11 11 9 9
12 8 8 8 9 10 10 10 10 10 10 8 6 7 6 5 4 5 6 4 5 4 6 7 8 10 11 13 12 12 11 10
11 8 8 10 10 10 10 10 9 11 10 7 5 4 2 2 3 4 4 4 3 3 4 6 7 9 10 11 11 11 11 10
11 9 11 10 9 8 10 9 8 7 5 4 3 3 4 3 4 5 5 5 5 5 6 6 7 9 11 12 12 12 13 13
13 11 11 10 8 6 6 5 3 2 0 2 4 4 7 7 7 8 8 7 8 9 10 10 11 13 16 16 16 17 18 19
13 12 11 12 11 9 7 5 4 4 5 5 7 8 9 10 12 11 10 11 12 12 14 15 16 18 19 21 23 24 23 22
15 13 12 11 9 5 4 7 9 9 10 9 9 9 10 10 11 11 11 14 15 16 17 19 19 19 21 24 27 29 28 26
18 16 14 11 10 6 3 6 9 12 11 10 11 11 12 11 10 11 13 16 18 18 19 21 22 25 27 29 31 32 30 28
24 22 19 14 10 3 4 11 13 15 12 12 13 14 13 14 14 16 18 18 19 21 23 24 26 28 30 32 32 31 29 27
29 24 19 17 13 17 19 19 18 16 11 12 14 16 17 17 18 17 16 18 22 23 25 27 29 31 32 33 32 30 30 29
29 21 18 13 18 14 14 8 3 2 7 8 9 11 13 14 15 17 19 22 24 26 27 27 30 32 33 32 30 28 26 22
16 16 15 15 3 3 3 2 5 10 12 13 14 16 17 19 21 23 24 26 26 28 30 31 31 31 33 34 32 13 5 14
2 8 8 6 5 4 3 5 7 13 16 16 16 17 19 21 22 23 24 26 29 30 30 31 30 30 30 31 14 24 11 6
14 12 9 7 5 6 5 4 8 13 17 19 20 20 18 19 21 23 26 27 27 29 28 28 30 27 24 18 10 7 26 19
14 13 9 6 4 2 4 7 11 13 15 17 16 17 19 22 24 25 26 26 26 28 29 28 25 21 19 17 16 20 18 15
7 5 2 2 4 5 8 9 12 13 13 16 16 18 20 22 23 23 24 25 27 27 24 21 18 17 16 17 17 17 17 14
5 2 4 8 8 9 10 13 15 15 15 15 18 20 20 20 20 22 24 25 26 25 23 20 16 14 14 13 14 13 15 14
4 4 5 10 8 9 10 11 13 14 16 16 14 14 18 19 22 23 24 25 24 22 20 18 19 17 16 15 16 17 17 18
5 4 7 9 9 10 11 13 14 17 18 19 17 20 23 24 24 25 25 25 22 18 18 17 16 16 18 18 20 20 20 23

GFSFLT2_850_spd_045.txt.gz
Wind_Speed
17 15 13 10 9 8 9 10 11 11 11 10 10 10 11 11 11 9 10 9 9 10 9 10 10 11 12 12 13 12 10 8
16 13 11 9 9 10 10 11 11 12 11 10 9 10 9 8 7 7 6 5 5 6 7 7 8 9 10 10 11 12 11 10
14 11 10 10 10 11 11 12 11 11 11 8 8 7 6 5 4 3 3 2 2 2 3 3 3 4 6 7 9 10 11 11
13 12 10 9 9 10 11 11 12 11 9 7 5 4 2 1 1 1 1 1 1 1 2 4 5 6 7 9 9 10 11 12
15 12 11 10 10 10 10 9 9 9 6 4 3 1 2 3 4 5 5 4 4 5 7 8 8 10 11 13 13 14 16 18
14 13 12 11 10 9 7 5 5 4 3 3 2 3 2 3 3 6 7 7 7 9 10 11 12 13 15 15 16 18 20 22
13 12 12 11 9 7 5 4 4 5 6 7 8 7 7 5 5 7 8 8 10 12 14 14 15 16 17 18 20 23 25 26
14 11 11 10 8 6 6 7 9 10 11 12 12 12 13 9 8 9 10 11 14 15 17 16 17 19 20 22 24 27 29 30
16 15 14 11 9 5 1 1 6 10 11 14 17 17 14 12 11 12 13 14 15 16 16 17 19 21 22 26 28 29 31 32
20 20 17 13 11 10 9 9 13 16 14 18 16 14 15 12 12 13 14 15 16 17 20 22 23 25 27 29 30 32 32 32
23 22 21 18 17 12 13 8 18 18 11 6 9 11 11 10 11 12 14 16 18 20 22 25 27 30 32 32 32 30 29 29
21 19 17 16 13 22 20 7 2 3 6 6 8 10 13 15 17 18 19 20 21 22 25 27 28 29 29 28 26 25 23 20
10 9 15 7 12 7 11 7 8 6 5 7 9 12 14 16 17 19 21 23 25 26 27 27 26 28 27 19 22 10 8 11
4 3 6 9 9 10 10 8 4 3 9 13 16 19 18 17 18 19 22 23 24 25 25 26 26 26 23 16 10 12 11 10
17 15 14 12 10 7 6 4 3 8 12 15 16 18 16 16 19 20 22 23 23 24 25 26 24 23 20 12 9 8 15 11
17 15 12 10 7 3 1 2 5 10 10 12 14 14 16 18 19 19 19 21 23 24 24 23 21 16 15 12 14 14 10 15
13 11 8 5 3 3 5 6 6 7 9 12 15 17 17 17 16 18 19 20 20 21 21 21 19 16 12 13 14 11 11 11
12 10 8 6 4 4 5 5 5 8 12 15 16 16 14 15 17 18 18 20 21 21 20 18 17 15 14 12 12 13 15 16
9 8 5 3 3 5 6 6 10 14 15 15 16 15 17 19 20 19 20 20 20 20 20 19 18 16 15 15 16 18 20 21
9 6 5 4 4 5 6 10 12 14 17 16 16 19 19 21 21 22 21 20 21 22 22 20 16 16 15 17 18 19 21 25

GFSFLT2_850_spd_048.txt.gz
Wind_Speed
15 16 15 12 10 9 9 9 9 10 9 9 9 8 9 9 8 8 6 6 7 7 6 7 7 8 9 11 12 12 10 9
15 14 12 11 10 10 9 10 11 10 10 9 8 8 7 6 5 4 3 3 3 3 3 3 4 5 6 8 9 12 9 9
16 12 12 11 9 10 11 11 11 10 10 8 8 5 5 3 2 0 1 1 1 1 1 2 3 5 7 8 8 7 8 9
15 13 11 11 10 11 12 12 11 11 8 6 5 3 2 1 2 3 4 4 4 5 5 6 5 4 7 9 7 9 8 9
14 11 12 12 11 10 9 8 9 9 6 5 3 1 2 3 4 4 6 7 4 5 6 5 9 9 7 11 10 9 9 11
13 12 12 12 11 10 10 8 8 6 5 4 3 3 5 4 5 6 7 7 7 7 6 13 14 15 15 15 15 12 11 14
13 12 12 11 10 10 9 7 5 5 6 8 7 7 7 7 8 7 8 8 7 8 9 10 13 14 15 16 14 14 16 16
13 13 11 10 9 7 6 6 5 8 10 13 12 11 12 13 13 11 11 11 10 11 12 11 11 14 13 16 22 20 18 20
13 13 12 11 10 8 7 6 0 6 9 10 12 14 12 11 11 10 13 13 14 12 13 12 14 18 20 21 21 20 20 20
13 17 16 14 11 10 9 8 15 14 15 11 7 6 7 8 8 11 12 13 14 13 13 14 15 17 20 20 21 22 21 21
15 18 19 18 18 3 4 7 19 12 3 5 6 7 9 9 10 11 12 11 11 13 13 17 17 18 19 21 22 21 21 19
15 18 18 15 17 5 8 10 6 4 3 5 7 8 10 11 14 15 13 10 11 18 18 15 16 18 20 22 19 21 19 16
10 7 9 8 8 6 9 12 10 6 1 5 9 12 15 15 12 14 16 13 19 19 16 16 17 17 19 20 21 18 14 13
12 8 7 10 11 11 11 11 8 4 3 7 10 14 17 15 14 13 18 13 13 14 16 16 16 15 18 21 21 21 21 11
13 13 14 14 13 12 11 11 5 3 4 5 13 15 13 14 16 17 16 13 13 15 14 14 16 16 15 15 18 18 21 21
15 14 14 15 14 10 10 6 5 6 4 8 10 13 14 16 17 14 13 13 13 13 13 14 14 16 16 15 16 18 16 16
14 13 11 14 11 8 6 4 5 3 5 9 9 10 13 15 14 14 13 13 13 13 13 13 15 15 16 17 17 16 17 17
14 12 11 10 7 7 7 7 6 3 5 7 9 10 9 12 13 14 14 15 15 15 15 16 16 16 17 16 14 14 16 17
11 10 8 8 8 7 7 6 3 4 6 9 11 13 14 16 17 18 19 19 18 17 18 17 17 18 17 16 15 15 17 19
10 9 9 8 6 4 3 2 4 6 9 11 14 15 16 17 18 19 19 21 21 19 18 18 18 18 16 15 15 17 16 18

GFSFLT2_850_spd_051.txt.gz
Wind_Speed
17 17 16 14 12 9 8 8 8 8 8 7 7 7 7 6 6 6 5 4 4 4 4 5 6 7 9 10 11 12 12 8
13 12 11 11 11 10 9 9 9 9 8 8 8 7 5 5 5 4 3 3 4 4 4 5 6 7 9 9 10 13 9 8
15 13 11 9 7 10 10 10 9 8 9 8 9 5 5 6 4 4 5 6 6 7 7 8 9 10 13 13 10 7 10 9
14 13 12 12 8 10 8 9 8 7 4 6 5 4 5 4 5 5 8 8 9 10 10 10 8 8 11 12 10 11 10 11
12 13 13 11 11 8 7 7 7 6 6 5 5 2 2 4 5 9 8 11 7 10 10 8 10 10 9 10 11 11 12 13
11 11 13 11 10 9 8 6 6 4 3 2 3 3 6 4 4 4 8 5 8 8 9 10 10 10 10 11 11 13 13 14
13 12 12 12 11 9 9 6 6 7 4 5 7 8 8 6 6 6 10 6 6 8 9 10 12 12 13 14 14 15 16 17
14 13 11 11 9 9 7 8 4 3 4 7 10 11 10 9 11 6 4 4 6 8 12 13 13 14 15 16 18 18 19 20
14 14 12 11 11 11 9 8 6 4 6 11 11 11 10 5 3 6 9 12 12 12 12 14 14 16 18 20 21 21 21 22
14 13 15 20 16 16 14 12 5 2 12 12 5 3 3 4 6 8 10 12 13 10 11 14 17 18 21 20 21 22 23 22
14 18 22 18 15 12 15 19 12 12 18 9 5 4 6 8 7 8 9 8 9 10 11 14 16 18 19 20 21 22 21 21
16 21 18 16 16 13 14 16 20 14 7 4 3 4 6 5 6 6 7 7 9 11 13 14 15 17 20 21 21 20 23 20
24 17 13 12 7 9 9 11 12 11 6 5 3 1 3 5 5 7 10 9 11 12 13 15 16 18 21 23 22 25 22 19
12 12 11 8 6 7 10 10 10 9 8 4 3 6 14 8 16 10 11 12 12 12 14 16 17 17 21 22 26 25 18 10
13 12 12 11 11 12 11 11 9 7 5 2 7 12 18 20 15 12 11 11 12 14 14 15 18 18 17 20 25 23 25 24
14 14 13 13 12 9 10 8 6 7 2 6 5 12 8 9 10 10 10 12 14 15 15 17 17 21 21 20 20 23 25 27
15 14 13 12 10 9 9 6 4 4 4 6 9 9 11 10 9 11 13 15 16 18 19 18 19 21 21 20 20 20 20 22
14 13 11 10 9 8 7 6 5 5 6 8 8 10 10 11 13 14 17 18 18 19 24 21 21 21 21 21 20 18 18 16
12 12 10 9 8 7 6 4 5 4 7 9 10 11 13 13 14 16 18 19 21 22 24 23 21 21 19 19 16 16 15 15
12 12 11 9 8 7 5 2 3 6 9 11 13 13 13 15 17 18 20 21 22 22 26 22 19 20 21 19 16 16 14 14

GFSFLT2_850_spd_057.txt.gz
Wind_Speed
18 19 18 18 15 13 11 10 11 11 12 12 13 14 13 13 12 10 10 10 9 9 9 9 10 11 13 12 9 7 16 14
19 18 16 15 13 11 10 11 11 12 13 14 15 14 13 13 11 10 9 9 8 8 8 8 8 8 10 8 5 5 11 12
19 18 16 14 11 10 11 13 13 14 15 16 13 12 12 10 9 9 11 10 8 10 10 7 5 6 5 3 4 5 9 11
19 18 16 14 13 12 13 15 15 18 16 13 10 8 6 6 4 7 10 9 8 9 8 5 6 7 8 9 10 12 12 12
23 18 16 14 13 15 17 17 18 18 13 14 9 6 4 2 1 4 5 5 7 5 5 3 2 6 11 12 15 14 16 12
24 19 16 11 19 18 15 15 13 14 12 14 13 13 9 4 2 2 4 4 4 3 4 3 6 6 7 7 13 15 15 15
22 25 20 18 19 18 19 18 19 17 14 11 9 8 6 6 8 6 7 8 9 8 10 11 12 13 13 15 11 10 10 12
24 21 25 20 23 22 23 20 17 14 10 7 4 2 2 4 5 6 5 6 7 9 11 13 14 14 14 14 15 18 19 18
24 27 25 22 25 22 19 18 15 11 11 7 3 4 1 2 3 3 3 6 8 10 11 11 13 16 17 15 11 14 18 20
24 29 24 22 21 21 17 15 13 13 9 4 4 3 3 4 2 1 4 8 10 14 15 17 16 16 16 13 14 17 19 16
26 25 25 23 15 16 15 16 15 11 10 9 5 3 3 1 3 7 8 8 11 14 17 18 19 19 20 20 21 20 18 18
27 23 20 20 16 16 11 18 13 13 12 10 3 4 1 5 6 9 10 10 12 17 19 22 22 21 23 21 23 20 11 10
27 22 21 20 20 14 15 12 11 13 11 9 8 5 3 0 4 9 13 16 17 18 18 21 25 28 27 32 29 15 24 7
26 21 15 14 14 10 8 10 8 9 9 9 6 4 5 7 7 12 17 17 17 19 21 23 25 24 25 28 21 33 10 21
23 16 13 13 14 10 6 10 13 13 10 6 8 7 9 12 17 20 18 20 19 21 21 22 22 23 27 21 19 12 32 26
14 8 18 18 16 15 15 15 15 12 9 9 6 7 14 16 19 20 21 19 19 18 17 20 24 25 22 21 26 28 29 26
12 19 18 18 19 14 15 11 15 16 15 12 7 6 9 12 16 14 11 12 14 15 17 18 22 25 26 27 27 29 28 30
20 17 18 23 16 17 17 15 20 18 15 12 11 8 10 10 9 9 10 14 17 21 24 25 26 28 30 29 27 24 27 24
23 24 25 23 20 21 21 18 19 17 15 13 13 15 15 17 18 19 21 24 27 26 25 24 24 24 26 27 25 27 24 25
24 23 23 22 23 23 23 21 17 13 10 13 13 15 19 19 22 23 25 25 26 24 24 26 26 23 23 24 25 26 21 23

GFSFLT2_850_spd_060.txt.gz
Wind_Speed
32 25 22 19 15 14 12 11 12 13 14 15 16 17 16 15 13 12 12 11 11 11 10 9 10 12 9 7 7 8 9 9
31 25 17 19 18 13 12 13 13 13 15 17 18 18 16 14 14 12 11 10 11 10 7 6 5 5 4 4 3 5 8 9
28 28 20 18 16 14 13 13 14 16 18 18 18 17 14 14 14 13 12 12 13 10 8 6 4 5 2 3 6 9 11 12
24 23 21 18 14 11 13 16 17 18 16 15 16 13 12 11 11 9 9 10 9 6 4 3 1 4 5 8 9 9 11 13
24 22 20 18 15 14 16 19 21 18 15 13 11 10 9 5 5 7 5 8 6 4 4 3 3 4 6 10 11 14 13 10
23 20 18 16 17 17 20 21 21 17 14 13 9 7 5 4 5 4 5 4 2 4 4 3 5 6 8 9 10 13 11 10
22 20 16 18 20 20 22 22 20 17 12 11 8 7 5 4 5 6 5 5 6 7 7 9 11 12 13 13 12 13 14 14
24 20 19 21 21 21 20 18 17 15 12 10 7 7 6 7 7 7 6 6 6 7 9 11 12 12 12 12 13 14 16 17
26 25 24 22 18 17 16 15 16 14 11 8 6 6 4 6 8 6 5 4 6 9 10 10 11 11 10 11 12 12 15 17
29 27 25 20 19 19 21 18 16 13 11 9 5 2 6 7 6 4 3 5 7 9 11 13 12 14 15 16 16 15 14 15
31 30 27 23 22 21 19 17 16 13 9 5 4 7 10 7 6 4 3 7 10 12 14 14 17 18 19 18 19 16 10 9
29 29 25 25 21 21 21 18 16 11 9 6 8 10 8 6 3 4 8 11 12 13 14 17 19 21 21 22 22 6 12 13
28 30 28 27 24 21 22 17 18 12 9 10 9 6 6 4 5 8 10 12 12 13 15 18 20 23 26 27 17 13 13 2
29 26 25 25 23 19 18 17 16 10 10 10 10 9 5 4 6 10 13 13 14 14 17 19 22 23 25 24 13 21 3 33
30 26 25 22 21 20 16 16 15 15 14 11 10 8 7 8 13 15 18 20 18 17 19 21 21 21 21 20 13 9 33 28
32 31 25 20 22 21 16 17 16 14 11 10 10 10 10 14 15 18 20 23 20 20 19 19 20 22 23 22 22 24 25 24
31 22 19 22 23 20 14 14 13 13 16 15 13 12 10 12 14 16 17 18 18 18 19 21 24 26 24 23 23 24 24 28
20 19 23 22 21 18 20 18 17 18 20 18 14 12 10 14 15 15 17 18 18 20 23 27 26 26 24 23 25 25 26 24
22 24 22 24 24 24 23 21 20 20 22 20 18 16 14 11 13 20 18 19 21 23 25 26 24 24 24 23 22 24 23 25
26 25 23 25 25 25 23 23 21 20 19 15 11 10 13 22 23 21 23 24 25 25 26 26 26 25 23 19 21 23 22 21

GFSFLT2_850_spd_063.txt.gz
Wind_Speed
28 30 25 19 18 14 12 12 14 15 16 17 18 19 19 19 17 17 16 15 14 13 12 10 7 6 8 7 7 9 9 7
29 28 28 17 15 12 11 13 15 16 18 19 19 18 18 17 16 16 15 13 11 10 9 7 5 4 6 6 6 7 8 10
31 34 30 23 17 15 15 16 17 19 20 20 19 18 17 16 15 14 14 12 10 9 7 3 3 2 3 5 8 8 6 9
34 23 19 19 17 16 17 18 18 19 20 20 16 16 14 14 13 13 11 9 7 4 1 1 2 3 5 8 11 10 12 13
34 27 21 22 19 18 18 19 21 21 19 17 14 12 11 9 8 7 7 7 4 2 4 4 3 5 7 10 13 13 14 15
23 21 21 18 17 19 20 21 22 19 18 15 10 9 7 5 6 4 6 5 4 3 3 4 4 8 11 11 13 14 16 13
26 21 20 18 19 20 22 22 19 16 14 11 9 7 4 3 5 6 6 6 5 4 4 6 8 9 9 11 13 15 17 18
21 18 19 19 20 22 21 21 18 14 10 9 6 5 5 5 6 7 6 6 5 5 5 6 7 9 12 13 13 14 16 18
23 20 19 21 22 20 19 17 15 13 11 8 9 8 7 8 8 7 6 5 3 4 5 7 10 11 11 11 12 14 15 16
24 24 21 21 21 18 16 15 14 13 11 11 10 8 7 8 8 7 5 2 4 7 10 11 11 12 12 12 12 14 12 12
26 25 22 23 19 17 15 15 14 14 13 12 9 8 10 10 9 7 3 4 8 10 11 12 12 12 13 14 15 8 6 11
26 26 24 23 20 18 19 20 18 15 14 11 9 13 12 10 7 3 4 9 11 12 12 13 13 15 16 19 14 2 18 5
31 29 29 25 25 25 24 21 18 16 13 11 13 13 12 8 4 5 9 11 12 13 13 13 15 18 21 23 14 6 16 7
35 31 31 30 25 23 20 20 17 14 13 13 12 12 9 5 6 10 11 12 14 15 14 15 17 20 20 20 10 17 5 14
34 31 31 26 26 25 22 21 17 19 18 16 12 8 6 8 9 10 11 12 13 17 18 18 18 20 19 17 9 7 22 14
33 32 32 30 29 29 24 22 24 22 17 13 11 10 10 11 11 8 10 13 16 19 19 18 19 21 22 20 17 18 19 17
36 33 33 28 27 25 20 19 16 15 15 16 14 14 14 10 9 8 10 13 19 19 17 19 23 24 23 21 21 20 21 22
38 37 32 26 27 26 23 17 15 16 18 19 18 18 16 15 11 11 16 27 20 18 21 23 25 25 23 22 22 22 22 21
29 34 31 29 25 26 23 19 18 18 20 23 24 23 20 13 9 19 24 17 18 21 24 24 25 24 23 21 19 18 20 23
22 26 26 27 28 26 22 22 23 23 24 27 26 22 16 16 17 21 11 16 20 21 23 24 23 21 20 19 20 22 23 22

GFSFLT2_850_spd_066.txt.gz
Wind_Speed
31 31 31 30 28 18 12 11 14 18 19 21 22 23 23 23 22 20 19 17 15 11 10 9 11 11 10 9 9 8 7 9
31 30 30 30 25 17 14 14 17 20 20 22 23 22 21 20 19 16 14 14 12 10 6 7 7 7 7 5 5 6 8 10
27 27 30 35 21 16 15 16 18 21 22 22 21 20 19 17 16 14 13 11 10 9 6 4 4 5 5 5 6 7 7 10
32 34 39 27 18 18 17 18 20 21 22 20 19 18 17 16 15 12 10 8 7 5 3 2 2 4 5 7 10 12 12 12
34 40 28 17 16 17 18 20 22 21 22 19 17 15 14 12 11 9 6 5 4 1 1 2 3 4 7 10 12 13 14 15
34 37 29 19 14 14 17 21 22 21 20 16 13 11 10 8 8 6 6 4 4 2 4 4 5 7 9 12 14 15 15 15
32 35 22 17 18 19 20 22 20 19 17 14 10 8 7 7 5 5 6 5 4 3 5 6 8 8 10 11 12 13 14 15
34 22 16 16 17 19 20 21 20 16 14 11 8 8 5 5 6 6 6 6 5 4 4 6 7 8 9 10 12 14 16 16
23 20 19 17 18 19 20 20 17 13 12 10 7 5 4 6 5 5 6 5 3 3 5 7 8 8 9 11 12 14 14 13
17 16 14 17 18 18 18 18 15 14 11 7 8 8 8 6 5 6 6 4 2 5 7 8 8 9 9 11 14 13 9 11
19 18 17 18 20 19 18 16 16 14 10 10 10 10 9 8 8 8 6 1 5 7 8 9 10 11 12 15 15 10 6 15
21 21 20 20 20 19 19 19 17 13 12 13 11 8 9 10 9 6 2 4 6 8 10 10 11 13 16 18 14 7 8 13
22 24 24 23 24 23 22 20 17 14 13 13 11 11 12 10 7 5 3 5 6 8 10 12 14 15 18 20 11 7 13 11
24 24 23 25 25 22 21 19 18 16 16 14 13 13 12 10 8 6 6 5 6 11 14 14 14 16 16 15 7 13 5 16
27 26 26 27 26 25 24 24 20 21 19 17 15 13 12 11 9 7 6 5 9 15 17 15 15 15 16 15 8 6 22 13
30 29 30 30 30 28 30 25 24 22 18 15 15 16 16 12 10 9 8 10 13 17 17 13 14 18 19 18 17 17 15 13
33 31 33 33 31 32 27 23 19 18 17 18 18 18 17 15 14 11 9 8 16 22 15 16 18 18 18 17 16 17 18 21
34 34 34 33 34 33 27 23 17 16 17 20 21 20 17 17 16 14 13 14 21 20 16 19 19 19 18 16 15 14 15 17
30 34 35 34 34 35 28 17 17 14 17 19 20 21 21 20 18 10 13 19 17 15 17 18 19 18 17 16 15 14 16 22
31 31 36 38 34 28 22 20 20 16 18 18 22 23 23 20 16 13 19 14 14 15 17 19 19 18 16 16 16 18 22 25

GFSFLT2_850_spd_069.txt.gz
Wind_Speed
30 30 31 32 28 26 25 23 23 20 21 23 26 26 25 23 21 19 17 16 15 14 14 15 13 11 8 7 6 8 9 11
32 31 33 33 24 24 22 18 15 17 23 24 26 26 24 23 20 16 14 13 11 12 12 9 9 8 6 5 6 9 11 12
34 37 34 27 30 25 17 16 20 23 24 26 25 24 22 20 18 15 12 10 11 10 8 7 6 5 4 5 6 9 10 12
30 35 34 31 31 30 19 17 21 24 26 24 22 21 19 17 15 13 11 9 9 6 5 4 3 4 5 7 10 12 12 12
34 43 40 37 29 23 21 22 23 24 24 23 21 19 17 16 13 11 10 7 5 3 2 1 3 5 7 9 12 12 13 13
42 40 35 34 21 20 21 23 24 24 23 20 18 17 15 13 11 10 9 6 4 2 1 2 4 7 9 11 12 14 14 14
39 35 31 19 15 17 21 22 22 22 20 19 16 14 11 12 11 9 9 6 4 3 3 5 6 8 10 11 12 13 14 15
36 42 29 21 18 18 20 22 23 21 19 16 14 13 12 10 9 8 7 6 5 4 3 5 7 8 9 10 12 14 15 15
38 27 17 14 13 15 19 22 21 19 17 15 14 12 10 7 7 7 8 6 4 2 3 5 7 8 10 11 12 13 12 9
30 20 16 13 13 17 21 22 20 17 16 13 10 8 7 7 7 8 7 6 3 1 4 6 8 9 9 10 11 10 8 12
21 16 14 15 16 18 21 22 18 16 15 11 10 7 8 8 9 8 7 4 1 2 4 7 8 8 9 11 11 8 7 11
17 14 13 13 16 20 20 19 19 17 16 13 12 12 10 10 10 9 8 5 2 2 5 8 8 9 11 13 11 7 8 10
20 19 19 19 22 22 21 21 20 19 16 12 15 13 10 12 11 11 9 5 4 3 7 10 11 12 13 13 11 9 10 8
24 22 23 22 22 21 20 19 19 17 13 17 16 12 11 13 13 13 11 8 6 4 8 9 11 12 12 13 6 9 6 12
26 23 23 24 24 22 22 21 22 19 20 18 15 14 15 16 16 15 12 8 6 5 10 14 14 13 13 9 6 6 14 8
29 26 24 24 24 24 25 25 26 24 19 17 16 18 19 19 18 15 11 9 6 10 14 15 15 12 15 14 13 14 10 12
30 29 26 25 23 25 26 27 26 18 19 19 20 22 22 21 19 17 11 9 9 13 16 14 14 15 15 15 14 15 15 15
31 30 28 26 26 26 27 28 26 20 21 22 24 24 23 23 21 18 15 11 10 13 14 13 15 16 16 15 14 10 10 11
31 30 29 29 28 28 32 31 26 20 20 22 25 24 24 25 23 20 17 12 14 20 13 16 18 16 15 14 12 11 12 14
30 33 31 27 34 32 31 30 26 22 19 20 20 21 25 26 24 22 11 26 17 12 15 17 17 15 15 13 13 13 16 19

GFSFLT2_850_spd_072.txt.gz
Wind_Speed
32 31 29 29 26 26 26 27 28 27 25 24 25 25 25 24 23 22 20 18 16 15 14 13 12 10 8 7 7 10 8 7
36 30 31 29 27 25 26 27 29 28 27 26 26 25 23 22 21 18 17 15 14 13 12 11 10 7 5 6 8 11 6 7
33 32 33 38 30 25 24 24 26 27 27 26 27 25 22 18 17 15 14 14 12 11 10 8 6 5 5 5 8 5 6 6
35 38 33 37 31 27 25 24 24 25 25 28 27 24 18 18 16 13 12 12 11 10 9 8 6 5 4 6 6 7 7 7
39 39 39 38 37 37 30 19 20 24 26 26 25 23 20 15 17 15 13 12 11 9 7 6 2 1 4 6 8 8 7 6
35 38 36 30 31 35 36 21 23 24 25 24 23 20 20 16 15 15 13 11 9 6 3 2 2 5 6 9 10 9 9 6
42 41 39 34 29 24 21 22 20 22 24 22 20 18 17 17 16 14 12 10 8 5 3 1 3 5 8 9 11 11 10 7
27 32 33 35 36 27 24 23 25 24 23 20 19 16 16 14 13 12 11 9 8 4 2 1 4 6 9 9 8 9 9 7
32 36 27 24 21 22 23 26 25 19 19 19 17 15 14 13 11 10 11 9 6 3 1 3 4 6 7 9 8 9 8 7
34 27 18 19 17 19 22 23 23 22 20 17 15 15 12 12 12 11 10 8 6 3 0 3 5 4 5 6 9 8 7 7
29 18 14 16 15 16 16 19 23 20 18 17 15 14 11 11 11 11 11 9 7 4 1 2 3 2 4 8 10 4 5 4
21 16 13 13 14 16 19 20 22 18 17 18 17 16 13 13 12 13 12 10 8 5 1 2 3 5 6 7 7 6 6 5
21 16 14 14 17 18 20 23 22 20 19 19 17 15 16 15 15 15 14 11 9 5 3 4 3 9 6 9 11 8 8 7
21 18 17 16 15 17 16 18 21 21 20 20 18 18 18 16 17 17 16 13 10 7 4 3 4 7 5 9 8 9 7 10
23 20 19 19 17 16 15 17 18 20 21 21 20 20 18 20 20 19 18 13 10 9 6 4 5 6 6 5 7 9 15 8
25 22 20 19 21 20 21 18 17 18 21 20 22 21 22 22 22 21 18 14 12 12 8 5 7 7 8 8 8 11 10 12
24 22 22 21 24 24 23 19 17 23 19 18 23 22 22 23 23 21 18 15 16 14 8 9 8 8 9 9 11 11 12 14
27 26 25 26 25 25 26 22 24 24 22 22 26 25 25 25 24 23 22 20 18 10 15 20 15 10 9 10 10 12 13 14
29 28 26 26 27 28 26 25 26 25 22 24 23 24 26 27 27 27 24 22 10 13 21 12 13 10 10 9 10 11 11 13
30 29 27 28 29 29 28 26 27 28 23 25 25 24 22 23 27 25 25 17 14 17 13 12 11 13 11 10 10 11 12 13

GFSFLT2_850_spd_075.txt.gz
Wind_Speed
40 35 33 31 31 29 25 24 23 24 24 24 24 22 22 21 21 19 19 18 17 16 14 12 11 9 9 10 12 13 10 8
32 31 31 28 26 25 26 26 27 27 27 27 24 24 23 21 20 18 17 16 15 13 11 10 9 7 8 8 12 13 7 7
39 32 33 35 30 24 23 23 24 25 26 26 25 26 24 22 18 16 15 14 12 11 11 9 7 5 4 7 11 4 5 6
34 33 42 37 36 29 23 22 23 26 26 24 27 26 21 21 19 15 13 12 12 11 10 8 9 6 6 8 4 5 5 6
30 31 35 38 35 39 30 27 20 24 22 19 21 21 18 19 18 15 14 14 12 11 10 7 8 5 1 1 5 5 5 4
32 32 42 44 46 43 39 33 26 24 23 19 23 19 16 17 15 15 15 11 11 10 9 6 3 1 3 4 5 3 4 4
37 42 43 45 38 39 34 28 29 24 25 23 19 16 16 15 15 13 13 13 10 8 5 4 2 1 3 4 5 7 6 4
34 35 37 38 30 32 30 24 21 24 19 17 19 17 17 16 19 15 12 10 9 8 6 4 4 1 4 5 5 3 5 2
32 26 33 41 31 33 30 24 20 22 24 22 19 16 17 15 15 13 12 14 14 10 8 4 3 2 2 4 4 5 3 3
31 31 23 26 30 31 22 16 20 22 22 20 19 16 14 15 13 14 15 11 10 9 7 6 4 2 1 2 3 3 2 2
34 33 28 23 21 18 17 19 25 24 21 17 18 17 16 14 14 15 13 12 11 9 8 6 3 1 2 3 5 4 4 4
28 20 20 20 18 17 17 18 22 20 20 19 17 16 16 15 14 14 13 12 11 10 8 5 4 4 4 7 7 5 6 5
25 18 17 19 19 18 18 19 21 22 19 18 18 16 18 16 13 14 14 12 12 11 9 6 3 4 4 6 9 13 7 7
22 18 15 17 14 16 17 17 18 19 16 20 21 19 19 16 15 14 15 13 14 12 9 7 5 5 2 7 8 7 9 9
23 20 18 18 16 16 16 18 16 19 17 18 21 20 20 19 17 16 16 14 13 13 10 7 5 5 5 3 6 6 13 12
25 22 21 19 20 17 18 19 16 16 17 22 20 22 22 19 18 17 18 14 13 12 9 7 6 3 7 8 9 10 8 10
27 24 21 19 20 23 21 20 16 16 19 22 20 20 23 20 19 19 17 15 15 13 15 9 6 13 11 9 11 12 13 16
28 26 25 23 25 24 24 22 19 22 27 20 23 23 26 25 21 20 18 16 19 20 14 13 16 14 9 10 11 12 14 16
31 28 28 26 26 27 27 26 25 28 24 23 27 27 26 24 23 22 21 23 20 15 12 12 14 11 10 11 12 13 14 15
32 31 29 28 28 29 29 27 28 29 25 22 26 23 25 22 25 23 21 21 21 11 11 13 13 13 12 13 13 13 14 14

GFSFLT2_850_spd_078.txt.gz
Wind_Speed
37 34 34 33 33 29 28 27 24 20 20 23 25 26 25 24 23 21 20 19 17 16 15 14 12 11 13 16 15 16 12 2
32 31 34 33 30 30 29 26 23 23 24 25 25 25 24 22 22 20 19 17 15 14 13 11 10 9 11 14 13 13 8 4
4 8 26 28 28 27 25 24 24 26 26 26 27 26 25 23 22 20 18 16 14 13 12 9 8 6 8 11 8 8 6 5
33 30 30 29 27 27 27 26 24 26 26 24 25 25 23 22 20 18 16 16 14 13 11 9 10 8 6 4 5 10 3 6
34 35 35 38 38 35 30 32 26 26 27 23 26 22 22 22 20 18 17 16 15 13 13 9 8 10 5 2 7 3 4 7
32 33 41 40 45 43 43 35 34 30 25 21 24 20 17 19 19 18 17 16 14 12 11 9 10 6 2 1 1 2 6 6
32 38 40 42 40 40 39 32 34 30 24 24 20 17 17 18 15 17 13 11 14 12 8 8 5 3 1 1 4 5 4 5
35 35 36 34 33 34 35 36 30 25 22 22 18 17 15 16 14 17 19 16 11 9 9 5 3 2 0 2 2 3 4 6
39 39 37 45 40 37 34 31 28 24 23 19 14 18 20 20 20 17 14 12 13 14 12 11 8 6 4 6 6 6 7 2
28 30 33 36 34 37 37 29 26 24 24 17 21 20 20 16 18 15 15 19 20 15 12 8 6 5 4 3 4 6 8 6
27 31 18 25 32 38 30 32 28 20 22 23 21 19 16 15 14 17 21 19 16 12 12 7 8 7 4 8 9 5 10 4
33 30 35 31 31 30 20 19 22 22 22 20 18 18 16 17 16 21 18 15 16 13 13 14 7 10 7 6 12 12 8 12
39 37 32 27 27 24 23 23 22 23 23 21 21 18 19 19 19 19 18 15 16 18 16 14 12 9 6 3 9 16 17 12
29 24 24 24 23 23 21 21 20 24 22 23 20 22 20 22 20 19 20 20 20 18 16 10 8 11 6 6 4 7 14 11
22 19 19 22 20 19 19 18 18 22 21 21 24 22 23 22 21 20 20 21 22 19 17 14 7 9 12 5 3 5 10 5
27 23 22 20 23 23 24 25 25 22 25 23 23 24 22 23 20 23 22 23 22 19 17 15 18 9 7 9 9 13 9 8
32 28 27 20 27 25 25 27 26 22 23 26 28 22 25 27 27 26 26 23 19 19 19 21 18 14 12 13 10 12 12 15
30 33 30 26 24 25 29 28 23 24 26 27 27 23 26 25 28 25 26 24 23 24 25 23 17 15 15 11 14 13 11 16
37 36 33 31 30 32 27 31 31 28 31 31 27 23 26 28 28 29 28 25 28 29 26 19 14 14 14 13 12 13 14 18
42 40 36 34 34 34 32 34 32 32 33 32 26 27 28 27 28 32 28 28 31 29 21 14 13 12 13 15 16 16 15 16

GFSFLT2_850_spd_081.txt.gz
Wind_Speed
21 40 42 44 40 36 34 31 27 24 22 25 27 28 28 27 25 25 24 23 21 20 19 17 17 18 19 20 15 11 6 6
34 9 47 44 39 36 33 30 26 23 25 27 28 28 27 26 24 24 22 20 19 19 17 15 14 16 17 15 9 7 4 5
9 15 47 44 40 36 32 28 24 26 29 29 29 29 28 26 25 23 20 19 17 17 16 13 11 11 11 11 5 4 1 4
11 18 28 35 36 34 31 30 29 30 31 30 30 27 26 24 24 21 20 18 17 17 15 15 13 9 6 8 7 3 1 4
20 24 27 27 33 35 35 33 32 29 30 29 28 26 25 26 23 21 20 18 18 17 16 13 8 7 3 4 4 2 2 5
29 31 34 39 38 37 37 41 36 33 32 27 26 26 25 24 22 20 18 18 17 17 12 8 7 7 5 4 4 3 4 4
34 39 39 39 39 38 38 41 42 32 28 28 23 22 22 20 19 18 18 18 18 14 9 8 10 9 4 3 4 2 3 3
31 40 40 39 39 39 36 37 35 33 28 24 21 18 19 18 17 18 18 17 14 10 10 9 7 5 2 1 2 1 2 4
31 32 35 37 43 36 35 34 32 28 30 27 20 19 16 20 19 20 16 15 13 12 10 8 6 4 2 1 1 3 2 6
33 34 36 40 35 37 41 38 31 34 32 24 22 21 19 16 15 19 20 19 15 12 10 10 8 5 3 1 3 7 7 6
27 30 35 36 37 35 36 40 37 33 21 24 22 20 18 19 21 20 22 19 17 14 14 13 10 8 7 5 7 9 7 7
25 34 36 34 38 38 36 35 33 26 22 25 30 20 19 21 20 23 21 19 20 20 17 14 11 13 11 9 9 8 10 10
32 34 30 30 36 37 33 32 29 34 35 32 26 21 20 22 22 21 20 20 21 18 18 18 18 16 14 11 8 10 15 14
29 30 31 32 32 34 30 35 32 29 27 26 25 25 24 25 23 21 20 21 19 20 21 21 20 17 12 9 4 6 11 16
34 30 30 34 33 32 27 25 24 26 28 29 29 27 25 25 26 24 23 24 23 21 21 21 20 16 14 11 5 5 9 10
34 29 28 26 27 28 28 29 31 32 30 30 28 27 24 25 27 27 25 26 26 25 21 22 21 20 18 13 10 11 9 7
32 28 25 23 26 28 29 31 29 28 26 30 30 30 32 29 29 29 26 28 28 26 23 26 26 22 19 14 14 15 13 12
31 29 27 25 24 30 31 34 32 29 28 29 33 31 26 28 32 33 29 28 29 28 26 27 27 24 20 17 17 16 16 16
37 35 36 33 31 33 34 36 33 31 29 29 29 30 28 27 32 35 33 32 31 29 30 29 26 25 22 18 16 16 16 17
40 39 40 40 37 35 36 37 37 34 32 32 30 27 25 25 28 33 33 33 33 34 33 32 28 26 21 19 14 13 17 21

GFSFLT2_850_spd_084.txt.gz
Wind_Speed
14 24 27 44 35 47 43 39 34 30 30 33 35 35 32 31 31 30 29 28 26 26 23 22 19 14 15 14 11 9 9 10
18 23 21 39 55 48 43 37 33 30 31 34 35 34 32 31 30 28 26 25 23 22 21 19 18 14 12 10 8 7 6 9
20 13 42 33 61 48 41 37 33 32 35 35 36 33 31 29 28 26 24 22 21 19 18 16 15 13 9 7 4 4 5 7
10 11 48 59 46 44 42 38 35 36 36 35 34 33 31 30 27 25 23 22 20 18 16 14 13 12 8 5 3 2 4 6
14 14 23 44 43 42 39 36 37 37 37 36 35 32 29 28 27 26 24 21 19 18 14 14 12 9 6 4 2 1 2 5
18 23 27 22 35 35 37 39 38 38 36 35 34 29 30 28 28 25 23 20 19 16 14 10 10 7 3 2 3 1 2 3
24 24 31 33 37 38 35 37 37 36 36 35 31 30 27 29 26 24 22 20 18 15 12 10 7 4 3 4 3 2 1 3
23 25 27 34 38 41 43 42 39 37 38 33 31 28 29 26 25 23 21 19 17 14 11 9 8 6 7 5 3 1 1 3
27 33 36 40 40 40 41 41 40 37 33 30 27 27 26 23 22 20 20 19 17 15 13 12 9 9 6 4 2 1 4 4
33 38 41 43 42 43 41 36 35 36 30 27 22 22 23 22 22 20 20 20 16 14 15 12 11 9 7 3 1 3 4 4
34 36 38 40 41 45 39 40 36 35 35 30 30 22 22 22 20 21 21 19 16 17 14 11 10 11 7 5 3 3 5 5
32 37 38 38 39 39 40 42 37 34 35 35 25 30 21 23 20 17 18 20 20 19 15 13 13 12 11 9 9 7 7 8
23 32 32 38 37 39 43 41 38 36 33 30 30 26 23 20 19 21 24 24 23 22 20 19 18 17 15 13 13 12 12 13
23 27 31 36 35 35 41 37 38 34 34 33 29 27 21 20 24 23 27 27 26 26 25 25 23 22 22 18 12 15 15 17
27 28 33 32 31 34 35 36 34 36 35 32 31 33 27 24 25 26 27 29 29 28 27 27 25 26 25 19 10 10 12 14
32 33 32 33 33 37 35 38 36 36 37 34 35 31 28 26 28 30 29 31 29 28 28 27 27 29 28 26 23 16 11 10
33 32 33 36 36 36 33 36 37 34 36 35 33 31 29 27 30 31 34 32 30 29 30 29 29 31 31 28 25 21 17 17
37 35 34 35 38 37 37 36 37 37 36 33 34 32 32 33 33 35 34 34 33 30 31 31 31 32 31 29 26 22 20 19
43 39 37 36 36 36 37 37 35 33 32 33 33 36 38 36 34 36 38 37 34 32 32 34 33 33 28 26 25 24 24 21
45 43 40 39 38 37 38 37 36 33 33 34 34 34 36 37 36 36 39 38 35 33 36 36 33 32 29 25 26 23 20 16

GFSFLT2_850_spd_087.txt.gz
Wind_Speed
33 35 40 38 36 53 49 43 38 32 34 35 36 38 39 38 37 36 34 32 26 23 19 17 17 17 15 11 10 12 12 14
25 34 36 36 41 48 47 43 38 39 38 37 38 38 39 37 36 34 34 31 26 21 18 15 15 15 14 9 8 10 11 12
21 25 36 37 42 45 49 40 39 38 38 38 38 38 38 36 35 33 32 30 25 20 18 15 12 12 8 7 7 7 8 9
22 21 41 37 50 45 46 39 36 39 39 40 39 38 38 36 33 32 30 28 26 20 17 15 11 9 8 6 5 5 6 7
8 7 13 56 55 46 42 37 34 39 45 45 40 39 38 37 35 31 28 26 24 20 17 13 11 9 8 6 4 4 4 5
10 5 10 38 49 53 58 46 44 44 44 42 42 41 39 36 32 28 28 24 21 19 16 15 12 9 6 4 3 2 2 3
7 13 18 22 47 56 56 48 45 43 40 40 39 38 37 34 28 29 25 22 20 18 15 14 12 8 5 4 3 2 1 2
11 19 22 29 26 41 44 43 42 40 38 37 38 36 35 33 30 28 23 22 19 16 15 12 10 6 6 6 4 2 1 1
18 18 22 31 40 45 41 41 41 40 41 40 34 33 33 30 30 28 23 23 20 17 14 12 11 10 9 6 4 4 1 1
20 21 22 31 35 37 40 40 40 39 38 35 33 30 29 28 27 24 23 23 20 17 13 12 12 11 8 7 6 2 1 1
24 27 32 35 38 39 38 40 38 35 32 31 27 26 25 24 24 24 23 22 20 17 15 14 15 12 10 8 6 3 2 2
32 37 37 37 38 38 40 37 36 35 31 28 29 25 23 23 23 23 21 21 21 19 16 16 13 11 12 10 9 8 8 6
20 32 34 38 38 43 41 37 39 40 33 28 26 29 26 21 22 22 22 23 24 19 19 18 17 17 15 15 14 14 13 13
25 29 33 38 41 42 39 37 41 37 35 31 30 33 29 22 21 23 25 25 22 23 23 23 20 20 21 17 12 18 19 19
22 27 29 28 35 39 37 40 37 32 38 37 38 32 32 28 24 27 28 25 27 26 27 26 25 25 24 19 10 12 13 21
17 18 24 28 36 39 39 42 43 40 39 38 37 35 35 30 26 27 27 28 27 27 28 29 29 29 28 30 27 17 11 9
20 22 23 25 30 32 32 39 39 38 40 39 36 35 34 30 29 28 27 27 28 30 31 32 31 32 32 32 33 32 28 23
24 25 26 28 30 31 34 37 37 37 39 41 41 38 35 35 34 33 32 32 33 32 35 34 32 34 33 33 34 32 30 27
32 33 32 33 36 36 41 39 38 40 39 42 43 41 40 41 39 39 37 35 34 34 36 34 34 36 35 35 36 33 32 21
35 35 33 35 39 41 41 40 38 40 39 39 40 41 42 41 40 39 38 37 37 36 36 36 35 38 40 38 38 37 31 30

GFSFLT2_850_spd_090.txt.gz
Wind_Speed
23 29 37 35 37 37 35 38 36 32 31 26 33 38 38 36 35 33 31 27 24 22 22 23 22 19 17 16 15 15 16 16
25 28 36 41 37 34 35 42 41 36 31 27 34 39 37 36 35 33 31 27 23 21 21 21 19 16 16 14 13 14 13 14
23 30 34 44 38 35 36 45 42 38 36 28 40 40 38 36 36 33 30 27 23 19 19 20 17 14 13 11 11 11 11 12
17 26 32 36 39 38 44 47 44 40 33 34 41 41 39 36 35 32 29 25 21 18 17 16 14 14 12 10 8 9 9 10
21 24 22 27 31 38 52 49 45 43 37 39 42 43 41 39 37 33 29 25 23 19 16 15 13 11 9 9 8 8 7 8
12 15 29 43 41 46 57 54 46 40 41 39 42 45 42 40 37 32 28 25 22 19 15 14 13 11 8 8 8 7 6 7
10 16 19 27 35 59 62 55 48 47 45 40 45 45 43 40 35 31 27 24 21 19 15 14 13 8 7 7 7 5 5 5
9 8 3 32 32 54 56 51 47 46 48 45 44 44 42 38 35 31 27 24 21 18 15 14 11 8 8 8 6 5 4 4
6 10 12 32 35 49 44 46 43 44 44 43 39 39 41 39 33 29 19 24 22 18 16 13 12 10 9 8 6 6 5 4
11 12 14 23 34 41 38 36 40 40 44 38 35 38 38 36 35 31 31 27 24 19 18 13 12 10 10 9 9 6 4 5
14 15 18 23 31 37 44 44 43 39 37 37 40 36 35 34 33 29 27 27 24 21 17 13 13 12 11 11 10 7 6 5
16 18 22 28 32 37 37 35 34 37 41 44 42 39 37 33 30 28 27 26 24 21 16 14 14 12 13 13 12 10 10 8
15 24 29 32 35 36 34 33 37 38 39 37 43 31 30 29 28 27 25 27 25 21 17 18 19 18 15 16 15 15 14 14
11 23 35 32 35 37 38 36 37 34 35 39 40 37 30 29 27 26 27 26 25 23 21 23 21 20 20 18 14 20 20 20
17 18 32 30 36 41 43 38 33 35 34 32 34 35 32 33 32 27 27 25 25 25 26 25 25 24 23 20 11 15 16 24
20 24 35 38 38 37 42 43 41 40 39 35 35 33 35 35 30 26 26 26 26 29 30 28 27 28 26 28 30 20 14 10
22 25 30 31 29 35 42 40 40 40 38 40 40 34 34 34 32 30 27 26 28 31 32 33 33 32 31 31 32 34 31 24
23 24 28 31 32 34 41 43 41 40 39 43 45 43 40 35 33 34 31 31 29 29 30 32 34 35 34 35 36 37 34 32
23 25 28 31 34 34 37 37 36 38 37 44 43 43 41 40 39 39 37 33 31 31 33 35 37 38 37 36 37 38 36 34
26 27 28 29 32 33 33 33 32 35 37 37 40 44 45 42 40 40 39 37 36 37 37 38 38 39 39 37 38 38 40 36

GFSFLT2_850_spd_093.txt.gz
Wind_Speed
18 20 20 26 32 35 42 41 39 37 34 31 32 33 35 34 33 31 29 28 27 25 26 24 22 20 19 17 17 16 18 19
13 29 33 32 36 35 39 41 40 38 33 32 35 36 36 34 31 30 28 26 24 25 25 23 20 18 16 15 15 15 15 16
14 22 24 30 36 34 36 37 39 35 33 34 36 39 37 32 33 31 27 25 25 26 26 23 20 17 14 12 12 13 13 15
17 20 29 36 38 39 38 37 37 36 32 32 37 39 36 35 34 30 27 24 24 25 24 22 18 17 14 11 10 11 10 12
15 14 24 35 42 35 40 46 39 39 39 35 35 39 37 38 37 31 27 23 23 23 23 20 16 13 12 11 9 9 9 11
20 20 19 25 31 41 43 45 46 42 41 36 35 41 41 41 39 33 29 26 24 24 22 19 16 12 11 9 9 8 8 10
15 15 18 25 29 33 46 51 49 45 46 38 39 43 44 42 39 34 30 26 24 23 20 20 15 14 11 10 8 7 8 9
14 17 20 22 34 48 46 48 54 55 44 44 40 45 44 42 38 34 30 27 24 20 18 17 14 12 12 11 8 7 7 8
9 11 14 15 28 39 64 55 63 52 46 42 39 49 45 43 38 35 32 27 23 20 19 18 15 13 12 11 9 7 8 6
8 7 8 8 30 44 57 59 58 45 47 42 40 48 46 42 39 36 33 28 25 21 20 19 15 12 12 11 10 10 8 9
8 6 5 12 24 34 50 51 47 46 43 40 36 43 44 41 40 38 34 33 28 22 22 18 16 15 14 13 13 11 9 10
7 10 8 12 28 31 37 39 40 40 37 38 34 40 42 42 40 37 35 31 28 23 22 19 17 15 15 16 15 14 12 12
12 14 13 16 25 37 40 37 37 34 32 36 34 34 37 38 34 31 30 30 26 24 23 20 20 19 18 18 18 18 17 17
12 11 19 20 24 30 33 34 39 34 34 35 36 37 34 31 29 30 29 28 24 24 25 24 23 21 21 20 16 21 24 23
13 10 22 24 30 34 36 34 34 35 33 37 38 39 39 34 33 28 26 26 26 28 27 25 25 24 26 18 11 12 16 26
13 11 21 30 29 30 38 41 40 36 36 39 40 39 40 37 27 26 30 27 31 29 29 29 28 28 29 30 29 19 11 8
17 17 22 32 30 32 41 40 39 35 36 39 39 36 37 34 37 34 30 32 33 33 32 31 31 33 33 35 34 34 32 26
22 22 24 34 36 34 38 43 39 38 37 39 42 41 42 38 37 36 36 34 31 31 30 30 33 36 37 38 39 37 36 33
25 27 28 30 34 32 35 36 43 44 42 40 40 37 40 38 38 37 38 36 35 32 30 31 32 33 37 40 40 43 42 38
28 29 31 35 36 35 35 36 42 44 42 41 43 42 42 46 40 37 37 37 36 36 35 35 36 37 39 40 41 44 44 42

GFSFLT2_850_spd_096.txt.gz
Wind_Speed
15 14 24 49 35 37 42 47 43 40 36 33 29 28 31 32 30 29 28 29 28 26 25 23 21 21 20 20 20 24 17 16
10 11 14 34 30 30 30 33 40 42 37 34 32 30 32 34 32 29 28 29 28 26 24 22 21 19 19 18 17 20 15 16
6 12 5 24 29 27 29 33 37 38 36 36 35 37 35 34 32 30 29 28 27 26 23 21 20 18 17 16 16 14 14 13
8 19 21 25 32 29 35 36 27 35 35 36 36 39 35 29 32 31 29 26 26 26 23 20 18 18 16 14 12 13 13 13
7 12 23 32 31 28 28 39 34 35 38 38 36 37 36 33 35 32 29 26 29 27 24 19 15 14 13 11 12 11 11 13
11 11 22 27 26 33 33 33 40 38 36 41 39 40 39 36 32 31 31 29 29 27 24 17 16 13 12 12 12 11 11 12
9 12 15 21 30 35 39 40 40 41 41 43 40 41 40 41 32 30 28 26 28 25 21 19 16 15 12 11 11 11 12 11
9 11 13 15 20 32 37 46 49 43 44 43 41 43 44 45 32 28 28 27 26 23 21 19 17 15 14 13 11 11 11 12
11 12 13 16 21 27 34 42 50 52 45 43 44 43 47 41 39 28 27 26 25 23 23 19 17 15 15 13 12 12 11 12
11 9 9 10 21 30 40 44 61 57 50 46 43 45 44 36 39 29 27 28 26 26 22 21 18 14 14 13 12 11 12 13
12 10 6 7 17 19 28 53 57 49 56 45 45 46 43 39 40 29 33 30 29 26 23 21 19 15 13 13 13 12 13 12
11 7 6 6 11 16 33 54 52 54 53 54 46 44 44 47 42 37 34 31 29 24 23 22 17 13 12 12 13 13 13 13
11 6 7 8 10 27 35 44 49 45 52 46 38 44 47 45 41 37 34 31 28 28 24 23 19 18 13 12 14 19 18 18
11 9 10 16 11 24 36 37 37 38 39 35 31 41 45 44 42 38 34 27 28 29 27 21 22 22 19 11 10 14 23 24
15 13 14 17 18 26 29 29 30 33 33 34 34 34 42 44 40 34 32 30 29 27 26 23 23 23 25 12 9 12 11 18
14 14 15 20 23 28 30 32 35 36 33 34 38 38 34 34 37 34 30 30 28 25 24 24 24 25 28 31 22 11 10 8
17 14 16 22 25 26 30 34 39 37 34 35 39 37 41 38 29 27 26 26 23 23 24 32 29 25 23 24 29 29 29 26
18 18 17 22 24 24 27 35 42 38 39 33 36 39 40 44 43 37 32 28 30 29 29 33 33 35 31 29 26 24 24 25
20 20 20 24 27 26 29 31 37 40 36 33 31 39 40 41 40 39 37 40 37 36 33 34 35 35 35 37 38 39 39 32
21 22 24 25 28 26 28 26 35 33 29 30 38 39 40 41 42 40 43 38 39 36 34 33 34 35 34 35 36 39 40 40

GFSFLT2_850_spd_099.txt.gz
Wind_Speed
19 21 26 35 32 50 47 49 48 46 44 38 32 29 30 27 26 25 27 29 27 25 24 23 22 21 21 22 27 22 14 14
15 20 27 24 23 33 37 44 46 46 43 38 32 33 30 27 29 27 29 29 27 25 23 22 22 21 20 20 26 20 14 14
13 13 19 23 16 42 35 46 48 48 42 40 37 35 28 31 28 28 30 29 27 26 23 22 21 20 20 21 17 11 12 11
17 13 7 7 14 16 26 28 29 45 43 41 38 36 36 32 30 30 31 30 28 26 22 21 21 21 21 17 13 11 9 9
15 10 14 15 19 27 13 19 32 35 42 42 39 33 33 34 33 31 31 30 28 25 23 20 15 15 13 7 11 10 9 9
10 10 15 21 25 27 18 24 34 23 37 38 36 37 39 35 38 35 34 32 31 28 24 16 15 14 11 11 11 10 10 9
9 10 12 17 24 18 23 20 29 34 33 38 36 42 42 34 37 35 29 27 31 25 20 17 14 13 12 13 11 11 11 9
8 10 13 14 17 20 21 23 31 31 35 39 38 40 39 37 34 32 27 27 26 23 20 18 16 14 14 12 11 10 11 10
9 11 11 15 17 18 22 27 33 35 38 41 40 40 41 41 35 33 28 27 26 24 20 17 17 14 12 12 11 11 11 11
13 12 13 14 16 20 19 32 35 38 41 43 40 37 40 43 36 33 29 28 26 23 22 20 17 15 14 12 11 11 12 12
13 11 11 12 16 20 25 30 35 42 44 50 51 42 40 41 34 34 33 25 26 24 22 21 18 16 14 12 11 11 12 11
11 12 13 11 11 14 19 30 39 45 52 52 49 47 43 43 34 30 27 25 25 24 23 19 17 16 13 12 11 12 10 13
12 12 11 7 11 14 18 30 36 50 55 53 51 48 49 39 34 31 30 26 29 25 23 21 16 15 14 12 10 11 14 14
15 13 10 9 9 14 12 20 42 49 50 54 47 51 48 43 37 37 34 26 23 23 22 19 16 17 15 12 9 11 16 21
18 16 14 12 11 16 20 33 42 46 45 46 48 53 51 46 39 37 34 25 27 28 25 20 16 17 17 9 8 9 11 18
15 17 16 15 14 21 21 19 35 40 46 42 45 43 44 45 34 36 34 29 26 26 23 22 17 12 17 21 17 11 5 5
16 17 15 19 22 22 25 22 19 22 24 28 33 38 44 43 38 37 33 31 23 24 24 24 21 18 17 16 22 26 27 19
18 17 15 20 24 27 29 27 26 28 30 36 38 35 43 43 41 41 37 32 28 25 22 22 23 24 24 19 18 16 21 23
20 18 16 21 23 25 25 27 26 32 30 34 36 39 37 41 39 37 33 31 27 26 23 27 30 29 29 30 29 30 31 29
20 21 18 23 23 18 21 23 27 32 34 31 31 35 38 39 36 36 40 36 32 27 35 38 33 31 31 31 31 28 31 32

GFSFLT2_850_spd_102.txt.gz
Wind_Speed
17 19 20 22 28 30 32 40 26 36 40 41 38 27 31 32 27 23 21 22 22 22 23 25 26 28 27 27 23 23 15 12
16 19 18 21 28 34 34 34 36 48 42 43 34 31 38 33 29 26 25 27 27 27 26 26 26 25 26 27 22 17 8 9
15 15 15 16 25 35 41 42 46 57 50 47 40 39 39 34 30 28 30 29 28 27 26 26 24 24 24 25 20 13 19 11
15 13 14 15 11 12 15 28 41 34 44 45 42 42 37 34 31 31 32 30 28 27 27 26 25 28 25 20 20 15 13 9
15 14 10 11 10 11 10 9 24 52 53 50 45 43 37 34 32 34 34 31 31 28 28 26 26 28 22 15 16 11 10 7
16 12 8 12 10 13 15 6 26 39 52 49 48 43 38 34 35 37 36 34 32 30 28 25 25 23 15 15 17 11 11 7
17 10 10 13 12 16 15 13 18 24 40 38 40 41 41 37 36 38 37 36 34 31 26 21 17 17 13 16 15 13 12 9
11 9 11 10 16 20 16 16 22 27 29 38 39 39 40 37 39 38 39 36 34 31 25 24 19 16 17 19 16 12 10 8
11 9 10 12 11 14 16 18 26 34 36 37 35 37 40 38 41 37 37 35 33 30 24 23 21 18 17 17 17 15 12 10
11 14 11 11 13 13 15 21 22 37 38 36 35 34 42 39 40 37 34 29 29 27 25 24 21 18 18 19 17 18 14 12
16 13 13 12 12 16 15 19 29 36 38 35 41 39 39 39 39 35 35 32 30 28 28 24 23 20 18 16 16 15 16 17
13 14 14 14 14 14 18 20 26 34 40 40 45 44 42 44 39 34 35 36 32 29 27 24 22 21 15 17 16 14 15 15
15 16 16 14 13 11 14 22 31 34 41 44 45 45 45 44 43 37 32 33 33 25 27 26 21 20 18 17 15 14 15 17
16 17 14 13 9 11 14 17 27 40 41 45 49 49 47 50 47 40 37 28 26 29 28 27 21 21 18 20 13 15 23 22
19 18 15 10 10 7 11 12 17 32 42 49 55 55 51 52 49 41 39 37 31 33 31 30 25 24 22 15 11 10 10 13
18 21 16 13 9 7 4 14 20 31 42 44 54 55 52 51 47 39 43 37 34 33 32 27 26 27 28 26 14 9 8 5
19 18 18 16 13 12 13 22 26 29 33 48 51 50 53 51 47 42 42 33 34 34 27 33 25 23 23 22 23 21 19 16
22 21 19 18 18 17 20 14 25 28 31 37 41 47 47 50 45 44 36 34 33 31 30 28 31 27 22 19 21 20 21 21
22 22 21 20 23 22 22 21 21 23 24 28 35 39 42 46 44 42 39 40 29 33 32 28 29 26 22 23 24 27 25 24
25 25 21 22 27 26 22 22 21 20 24 26 30 34 39 45 48 47 40 32 33 37 31 29 26 27 26 32 37 31 29 31

GFSFLT2_850_spd_105.txt.gz
Wind_Speed
15 16 17 19 22 24 25 24 31 34 35 35 26 34 28 29 28 25 21 22 22 26 33 37 36 34 31 27 23 15 9 10
15 17 16 21 25 27 29 30 32 37 38 33 40 38 31 33 31 27 24 25 26 28 31 34 34 32 29 24 20 13 7 8
14 15 16 17 23 25 29 33 35 37 39 38 47 31 32 33 33 28 26 27 28 29 31 33 32 32 27 23 18 10 4 12
20 20 20 17 20 23 25 31 34 36 42 41 46 33 33 37 35 29 30 29 27 30 31 32 34 33 29 22 16 9 6 5
19 18 18 16 16 17 15 8 24 43 37 41 33 39 41 42 36 31 33 32 33 33 33 34 33 34 28 22 18 14 6 4
19 17 17 12 13 14 11 9 10 31 44 44 49 47 44 44 38 38 37 37 36 35 34 34 36 30 29 22 17 12 9 4
16 17 14 10 14 14 9 8 10 16 43 45 57 44 44 43 41 42 40 37 36 34 34 35 33 28 24 25 14 13 11 7
16 14 9 11 16 12 10 2 8 16 45 53 50 50 51 45 43 43 41 38 36 35 34 35 28 24 25 21 15 14 11 8
14 7 11 12 14 16 13 9 10 23 46 53 49 53 47 45 46 46 42 39 36 33 31 28 26 19 20 21 12 13 12 8
13 9 12 12 12 16 17 12 17 24 37 43 42 42 44 44 47 46 42 40 37 32 28 24 22 21 23 25 14 14 12 10
14 12 15 14 14 15 15 15 23 29 43 41 46 44 42 41 43 44 43 41 38 33 28 28 26 22 23 23 21 17 12 11
11 15 20 19 16 16 17 18 21 32 39 47 45 45 42 41 40 40 42 41 38 35 29 31 26 23 21 22 20 20 15 15
12 17 19 20 19 21 22 24 27 29 43 40 47 44 47 43 40 39 42 40 38 39 33 31 26 25 21 20 18 18 19 19
14 19 20 20 20 20 22 27 29 34 40 46 49 49 47 46 44 43 41 41 40 39 38 32 28 26 25 24 20 18 19 20
17 20 19 19 18 18 18 22 26 35 40 50 54 48 47 51 47 45 43 43 42 39 37 34 31 29 24 21 13 11 22 24
18 21 19 18 17 16 13 15 20 29 46 46 51 53 52 52 45 43 42 44 41 37 31 30 30 32 25 25 18 10 11 10
19 22 20 18 17 13 13 11 14 18 31 39 50 51 53 58 50 46 43 40 40 34 33 30 30 30 29 29 26 17 14 10
20 22 21 20 18 17 14 13 17 14 29 36 36 53 54 56 55 50 48 40 37 34 33 34 34 24 25 25 31 28 24 21
22 23 21 20 20 19 18 10 19 15 26 38 42 49 55 60 58 53 47 39 39 36 33 33 26 25 30 27 29 26 22 19
23 25 22 22 22 20 21 16 12 17 29 40 44 44 52 52 56 54 45 40 41 38 34 31 29 29 30 33 29 26 28 34

GFSFLT2_850_spd_108.txt.gz
Wind_Speed
15 15 15 17 18 20 21 22 26 31 34 32 34 34 17 24 22 17 18 19 30 33 38 36 31 28 22 19 17 11 8 12
15 15 16 17 19 23 24 25 27 32 35 36 37 28 28 22 26 25 21 24 31 35 37 35 30 25 21 19 15 11 8 12
14 14 13 15 18 21 26 30 30 33 38 42 33 30 40 28 30 29 26 30 34 37 37 34 30 25 23 19 15 10 5 14
16 16 15 16 17 21 26 31 34 34 38 41 37 40 37 28 37 30 29 33 38 39 38 34 28 23 22 19 14 10 11 13
18 18 17 17 18 19 23 25 27 31 38 41 45 39 34 40 41 32 32 36 38 41 40 36 29 25 24 20 15 13 10 9
19 19 16 18 18 16 18 23 22 23 33 41 48 43 41 40 42 38 38 40 41 41 42 37 32 27 22 19 15 14 8 5
22 20 17 17 16 16 18 18 23 29 37 46 48 51 45 45 46 39 38 39 40 43 40 38 35 24 19 18 17 13 7 5
21 19 16 16 14 17 17 15 19 20 29 45 54 45 44 44 46 41 43 42 41 40 39 40 38 26 22 18 15 13 9 5
20 18 14 14 13 16 15 14 15 23 30 43 48 52 47 53 46 42 42 41 40 40 39 39 35 28 24 19 15 13 10 6
21 18 13 11 13 14 17 15 12 12 34 47 48 51 45 48 47 44 43 41 41 40 41 39 33 31 24 20 15 14 11 7
21 17 11 13 15 13 17 13 12 19 28 48 49 45 52 52 46 46 46 43 41 41 43 40 31 27 24 22 17 14 11 10
19 16 13 14 15 15 15 15 18 25 29 43 48 50 50 49 47 48 47 45 43 41 40 37 33 28 25 20 15 13 12 12
20 18 17 19 19 19 18 17 24 34 37 45 45 46 47 45 47 49 49 46 45 43 39 34 30 26 26 23 17 15 15 14
22 19 19 20 20 20 22 22 23 32 40 44 45 46 47 45 45 48 50 48 46 44 41 38 34 30 30 27 22 17 18 17
23 21 21 21 21 22 24 25 27 30 37 44 48 51 48 48 44 48 50 50 51 47 43 40 40 33 29 24 15 11 22 21
22 22 22 21 22 25 25 28 33 32 35 44 52 49 51 50 49 47 51 52 50 49 46 43 42 37 34 28 21 12 12 12
24 24 23 22 23 22 22 24 27 35 39 38 53 54 54 54 53 52 51 49 49 49 49 45 40 40 37 37 25 17 15 12
25 25 24 24 22 22 21 19 17 25 27 46 34 58 59 57 56 52 50 50 48 46 44 45 43 36 37 35 27 21 21 17
28 26 25 25 22 21 19 14 14 15 17 29 44 40 55 58 52 51 50 48 46 48 47 41 30 33 36 32 22 27 26 26
30 27 25 25 24 23 18 15 10 14 13 24 29 42 53 54 53 49 50 47 45 44 43 38 37 35 34 27 23 25 30 29

GFSFLT2_850_spd_111.txt.gz
Wind_Speed
12 14 15 16 17 18 19 20 23 26 27 30 26 25 18 14 21 22 19 19 23 27 28 30 29 25 20 20 16 11 9 11
15 17 17 17 18 20 22 23 23 27 31 33 37 28 30 27 25 21 16 20 29 32 31 31 27 22 18 19 13 8 8 10
18 19 19 17 18 19 21 22 28 30 34 38 37 31 28 25 27 22 18 24 32 34 35 32 27 20 17 18 13 8 7 12
21 21 21 18 18 18 18 22 29 34 37 39 38 36 36 28 31 26 24 28 34 37 36 32 26 21 25 19 12 7 9 13
23 23 23 21 19 19 20 24 31 35 40 40 41 42 35 33 35 32 27 31 39 40 37 31 26 23 24 17 12 9 11 12
25 26 26 23 21 21 21 23 28 34 38 39 46 45 37 42 40 39 34 33 41 42 38 32 27 23 22 18 13 10 8 10
29 28 28 24 22 21 22 22 25 28 31 37 41 48 48 47 43 47 37 37 43 44 38 33 29 27 23 17 14 12 7 6
31 29 27 24 22 21 21 21 21 21 26 32 39 47 48 45 45 47 39 39 45 45 40 33 29 26 22 18 16 12 7 5
31 30 27 23 20 19 20 21 21 21 26 33 40 55 57 46 47 46 41 39 44 45 40 34 31 26 20 20 17 11 9 5
33 31 26 19 17 17 20 19 22 21 29 35 50 47 56 52 55 50 42 42 44 46 43 38 33 27 23 21 17 13 11 8
35 30 22 17 15 17 18 17 19 20 25 32 33 38 58 58 53 47 42 43 45 46 46 42 37 30 24 21 18 14 13 10
35 26 20 17 16 17 15 17 15 15 12 30 33 36 48 44 41 41 39 42 45 48 45 43 39 33 27 21 18 15 13 10
33 26 22 19 20 22 19 17 14 13 11 28 34 46 39 40 38 39 41 46 47 46 45 46 38 32 28 20 17 17 15 13
33 26 22 20 20 22 20 17 17 18 20 31 38 40 42 45 42 43 44 46 46 48 48 48 39 35 31 28 22 19 21 18
34 27 22 21 23 23 21 19 20 23 25 37 38 40 37 41 43 44 45 48 49 49 50 51 46 37 33 23 14 10 21 20
32 26 23 23 27 26 23 25 25 30 31 33 40 40 42 42 42 44 47 50 51 51 49 49 46 42 37 33 24 15 12 11
34 27 25 27 30 28 26 27 26 27 30 36 43 42 44 45 45 46 48 52 53 52 52 49 44 42 40 38 27 15 16 13
34 29 27 30 29 29 28 28 29 30 28 35 42 45 47 48 49 50 46 50 54 53 53 48 43 42 40 36 35 27 17 12
36 31 31 31 31 29 26 24 25 28 34 37 35 44 44 54 55 52 50 49 52 52 51 48 43 42 41 38 33 29 19 14
39 33 33 32 30 28 25 23 21 20 25 32 36 45 39 54 58 55 53 52 51 49 47 49 47 44 43 40 34 32 26 19

GFSFLT2_850_spd_117.txt.gz
Wind_Speed
18 17 15 15 16 18 21 22 21 21 25 31 24 28 25 25 29 27 20 15 14 17 18 18 20 19 17 16 15 14 13 14
23 21 19 19 19 20 21 23 21 23 28 28 28 33 24 28 33 24 19 13 14 18 20 20 20 18 17 16 15 13 12 13
26 24 23 21 21 21 22 23 23 23 27 28 30 30 30 31 33 26 15 18 18 19 21 21 21 19 18 17 15 13 13 14
30 28 26 24 23 23 24 25 26 26 29 32 32 30 35 37 33 20 15 14 20 19 22 22 22 22 20 18 14 13 14 14
33 32 28 26 26 25 27 26 28 28 30 33 31 33 36 35 32 24 22 21 25 22 25 27 28 26 25 20 14 13 15 17
33 34 31 30 28 28 27 28 28 30 32 34 35 38 37 39 33 28 28 28 30 28 32 33 29 24 23 19 15 12 14 16
34 36 35 34 30 30 30 29 29 30 32 35 38 41 40 43 35 33 33 33 33 32 35 34 30 24 22 19 13 12 16 18
26 34 40 38 34 31 31 30 30 29 30 33 36 40 41 44 39 35 34 33 35 35 36 35 30 24 23 19 15 14 15 16
28 27 39 42 39 34 32 31 30 31 28 33 34 38 43 47 43 42 40 37 36 38 38 35 31 24 25 21 17 14 14 15
27 29 33 41 42 36 34 32 32 31 29 31 35 35 37 41 47 47 43 41 37 40 37 37 32 28 27 23 18 16 15 13
30 30 31 35 41 36 34 31 31 29 25 27 31 35 36 39 46 54 46 46 41 42 43 40 35 31 30 26 21 18 15 13
28 29 27 29 36 36 34 32 29 26 24 26 27 32 34 37 42 56 48 48 46 46 45 42 36 33 31 26 24 19 17 14
25 25 28 30 37 38 34 33 28 26 27 27 29 30 33 42 47 45 49 51 48 46 47 44 38 34 30 26 24 20 19 17
20 21 26 29 37 37 33 27 26 24 26 26 26 28 31 35 47 56 51 53 50 47 49 47 40 38 31 24 15 18 22 20
16 19 24 31 36 33 29 24 21 22 24 24 24 24 22 28 42 53 48 49 52 46 52 52 47 40 37 20 14 11 21 24
16 17 22 33 35 32 28 24 23 26 24 22 17 20 19 23 38 51 42 49 50 47 50 53 49 45 38 28 24 19 17 13
15 15 23 35 35 30 26 21 20 22 20 20 17 20 21 19 32 37 44 47 50 46 49 52 50 47 45 39 25 20 21 16
14 16 25 34 34 31 26 22 22 23 20 22 20 22 26 27 27 34 42 47 48 44 46 50 51 47 44 42 38 30 25 21
15 18 26 34 34 31 25 22 22 22 20 24 22 25 26 32 28 28 25 37 44 42 43 47 50 49 47 45 40 32 25 22
14 20 26 32 34 30 25 23 24 22 23 23 28 24 31 25 31 33 34 31 31 34 40 44 46 48 46 45 41 37 30 25

GFSFLT2_850_spd_123.txt.gz
Wind_Speed
17 15 14 12 11 12 14 14 14 13 13 15 18 21 21 23 16 16 12 13 11 14 17 15 14 16 14 13 15 15 11 10
18 18 17 16 15 15 16 17 16 16 15 19 21 20 23 22 18 21 11 13 14 17 17 15 17 17 15 14 13 16 7 10
19 21 20 19 18 17 17 18 18 18 18 21 21 21 23 22 20 22 14 15 16 16 17 17 17 17 15 14 13 11 6 10
19 22 23 22 22 20 20 21 22 23 23 24 23 24 22 19 22 24 18 20 19 16 16 15 16 17 16 14 13 10 11 10
19 20 24 24 24 23 22 20 22 23 23 23 25 22 22 23 25 25 23 22 22 19 16 16 16 18 16 15 12 13 11 11
20 20 21 24 22 26 26 23 21 21 22 25 26 27 30 24 29 25 24 25 24 22 17 16 17 16 16 16 16 14 14 8
19 20 22 21 24 27 30 25 24 24 22 25 27 25 31 25 25 25 24 28 29 25 19 22 23 20 17 21 16 13 15 12
18 21 21 22 25 29 32 31 24 25 26 27 29 28 28 27 29 33 28 31 29 25 25 28 22 24 25 23 17 14 15 12
15 18 20 23 24 26 32 34 33 29 28 29 29 31 30 28 30 30 34 33 31 29 32 27 28 22 27 23 19 16 16 16
19 18 20 23 24 26 30 34 37 34 31 31 32 30 31 30 32 31 34 32 33 32 27 28 28 24 26 24 19 18 18 17
20 21 22 26 25 26 29 30 37 40 33 28 33 31 33 31 30 31 34 37 28 29 31 30 27 24 26 26 21 19 18 17
20 23 24 26 26 26 27 31 30 40 42 29 28 29 35 34 34 34 34 43 37 37 33 29 27 28 25 27 22 23 19 19
18 20 24 26 26 27 31 33 37 34 39 35 31 32 30 32 32 34 35 39 39 39 43 36 32 31 29 28 24 23 22 20
15 18 18 21 25 26 28 35 41 37 37 36 34 31 31 27 33 36 35 33 37 39 39 43 37 35 38 35 23 21 22 22
11 13 15 18 21 23 30 33 35 35 39 38 35 34 29 26 28 33 40 37 46 40 42 50 42 40 39 40 25 19 27 24
9 9 12 16 19 23 30 33 34 34 36 36 33 29 25 27 27 31 37 40 40 42 45 50 44 41 39 38 27 27 31 22
10 7 9 13 16 22 23 30 24 19 22 25 34 28 25 25 28 32 35 43 36 54 48 54 50 44 46 38 34 23 32 24
11 10 8 15 15 26 23 31 21 24 22 26 22 24 27 29 29 31 32 37 37 55 47 59 59 45 44 40 37 27 34 25
12 11 9 10 14 19 27 26 25 22 22 19 20 26 28 29 28 26 24 26 37 47 49 63 58 47 44 40 32 32 28 25
13 12 10 10 11 17 27 25 23 20 19 20 20 22 22 21 21 22 15 16 26 45 52 57 62 50 47 40 32 33 27 27

GFSFLT2_850_spd_126.txt.gz
Wind_Speed
14 14 12 11 10 9 10 9 10 9 9 10 11 14 13 15 18 11 7 4 5 13 11 9 11 12 13 17 19 12 14 12
16 15 15 14 13 12 12 12 12 12 11 12 14 14 14 16 20 12 13 5 13 12 12 11 11 13 15 16 22 13 8 10
19 18 18 17 16 15 15 15 16 15 15 16 15 16 17 19 20 16 19 10 13 11 11 11 11 14 16 17 22 15 3 17
20 20 19 19 19 19 19 18 19 20 20 20 19 18 19 21 22 20 22 15 12 11 12 12 12 18 18 18 23 14 7 10
20 21 22 21 21 22 22 22 22 23 23 23 22 20 20 20 21 22 23 18 16 16 16 16 17 20 20 17 21 12 14 10
21 21 22 22 24 25 23 24 24 25 25 24 23 24 24 24 26 24 24 24 22 20 20 21 19 17 19 20 19 16 14 13
25 23 24 24 23 26 26 26 25 24 24 25 26 25 27 28 26 27 27 27 26 26 24 23 21 19 18 24 21 18 17 14
18 22 25 25 24 24 25 27 28 27 25 24 25 29 27 31 31 28 26 25 23 28 26 23 20 24 27 23 23 15 13 15
25 23 26 26 27 25 28 27 27 28 27 28 28 28 30 28 28 30 28 29 28 24 23 18 21 24 27 25 25 18 15 15
24 23 23 27 26 28 28 27 28 29 29 28 33 30 33 31 29 29 29 30 29 28 30 27 26 25 26 29 25 22 22 15
17 18 14 24 24 28 28 27 30 33 30 31 35 34 32 32 33 31 30 32 31 32 30 24 30 29 30 29 25 24 24 17
16 18 21 15 24 29 29 30 29 30 35 33 39 35 34 32 32 31 31 28 30 31 26 29 24 36 30 32 24 25 26 23
17 23 25 28 26 28 32 32 34 34 33 38 28 31 31 33 34 33 31 31 29 35 26 30 30 26 27 29 26 27 22 25
16 18 21 25 26 31 32 32 31 37 34 28 37 29 29 29 35 35 32 33 33 30 36 34 36 33 32 33 26 27 26 26
11 15 18 21 23 23 27 29 32 34 34 30 31 39 35 32 33 32 33 35 36 34 36 40 41 41 33 40 22 16 32 27
11 10 11 14 20 23 29 35 36 39 37 31 31 35 30 30 29 30 32 36 38 40 37 36 41 47 39 43 32 33 35 25
7 11 6 11 15 24 22 32 34 37 33 32 34 34 36 34 30 28 31 35 32 36 36 40 40 51 46 46 38 27 37 32
6 11 13 14 21 21 19 28 25 27 24 27 30 33 29 29 26 27 29 31 34 38 38 45 46 52 48 49 44 35 39 32
10 7 12 18 17 13 24 24 22 25 24 25 24 23 30 30 28 31 31 31 32 34 41 50 50 49 58 49 47 37 35 35
11 12 7 12 16 13 17 26 24 30 22 27 26 26 26 28 30 31 32 31 32 32 42 46 47 53 60 51 49 45 35 35